Wetterdaten: Donnerstag, 13.06.2013
Datum Zeit Temp. Aussen +5cm Feuchte Auss Luftdruck Regen Sonnenschein Regendauer UV Solar Windben
13.06.2013 00:00 19,9 C 18,4 C 81 % 1015,2 hPa 0,0 l/m 0 min 0 min 0,0 UV-I 0 W/m 12,9 km/h (3 Bft)
13.06.2013 00:02 19,9 C 18,4 C 81 % 1015,3 hPa 0,0 l/m 0 min 0 min 0,0 UV-I 0 W/m 0,0 km/h (0 Bft)
13.06.2013 00:06 19,9 C 18,4 C 81 % 1015,3 hPa 0,0 l/m 0 min 0 min 0,0 UV-I 0 W/m 7,7 km/h (2 Bft)
13.06.2013 00:08 19,9 C 18,4 C 81 % 1015,3 hPa 0,0 l/m 0 min 0 min 0,0 UV-I 0 W/m 0,0 km/h (0 Bft)
13.06.2013 00:10 19,9 C 18,4 C 82 % 1015,4 hPa 0,0 l/m 0 min 0 min 0,0 UV-I 0 W/m 7,7 km/h (2 Bft)
13.06.2013 00:12 19,9 C 18,4 C 82 % 1015,3 hPa 0,0 l/m 0 min 0 min 0,0 UV-I 0 W/m 10,3 km/h (2 Bft)
13.06.2013 00:14 20,0 C 18,4 C 82 % 1015,3 hPa 0,0 l/m 0 min 0 min 0,0 UV-I 0 W/m 7,7 km/h (2 Bft)
13.06.2013 00:16 20,0 C 18,4 C 82 % 1015,4 hPa 0,0 l/m 0 min 0 min 0,0 UV-I 0 W/m 7,7 km/h (2 Bft)
13.06.2013 00:18 20,0 C 18,4 C 82 % 1015,3 hPa 0,0 l/m 0 min 0 min 0,0 UV-I 0 W/m 7,7 km/h (2 Bft)
13.06.2013 00:20 20,0 C 18,4 C 82 % 1015,3 hPa 0,0 l/m 0 min 0 min 0,0 UV-I 0 W/m 10,3 km/h (2 Bft)
13.06.2013 00:22 20,0 C 18,4 C 82 % 1015,2 hPa 0,0 l/m 0 min 0 min 0,0 UV-I 0 W/m 0,0 km/h (0 Bft)
13.06.2013 00:24 20,0 C 18,4 C 82 % 1015,3 hPa 0,0 l/m 0 min 0 min 0,0 UV-I 0 W/m 2,6 km/h (1 Bft)
13.06.2013 00:26 20,0 C 18,4 C 82 % 1015,3 hPa 0,0 l/m 0 min 0 min 0,0 UV-I 0 W/m 12,9 km/h (3 Bft)
13.06.2013 00:28 20,0 C 18,4 C 82 % 1015,3 hPa 0,0 l/m 0 min 0 min 0,0 UV-I 0 W/m 10,3 km/h (2 Bft)
13.06.2013 00:30 20,0 C 18,4 C 82 % 1015,3 hPa 0,0 l/m 0 min 0 min 0,0 UV-I 0 W/m 12,9 km/h (3 Bft)
13.06.2013 00:32 20,0 C 18,4 C 82 % 1015,2 hPa 0,0 l/m 0 min 0 min 0,0 UV-I 0 W/m 18,0 km/h (3 Bft)
13.06.2013 00:34 19,9 C 18,4 C 82 % 1015,3 hPa 0,0 l/m 0 min 0 min 0,0 UV-I 0 W/m 2,6 km/h (1 Bft)
13.06.2013 00:36 20,0 C 18,4 C 82 % 1015,3 hPa 0,0 l/m 0 min 0 min 0,0 UV-I 0 W/m 10,3 km/h (2 Bft)
13.06.2013 00:38 20,0 C 18,4 C 82 % 1015,2 hPa 0,0 l/m 0 min 0 min 0,0 UV-I 0 W/m 12,9 km/h (3 Bft)
13.06.2013 00:40 20,0 C 18,4 C 82 % 1015,2 hPa 0,0 l/m 0 min 0 min 0,0 UV-I 0 W/m 10,3 km/h (2 Bft)
13.06.2013 00:42 19,9 C 18,4 C 82 % 1015,1 hPa 0,0 l/m 0 min 0 min 0,0 UV-I 0 W/m 18,0 km/h (3 Bft)
13.06.2013 00:44 19,9 C 18,4 C 82 % 1015,1 hPa 0,0 l/m 0 min 0 min 0,0 UV-I 0 W/m 5,1 km/h (1 Bft)
13.06.2013 00:46 19,9 C 18,4 C 82 % 1015,2 hPa 0,0 l/m 0 min 0 min 0,0 UV-I 0 W/m 12,9 km/h (3 Bft)
13.06.2013 00:48 19,9 C 18,4 C 83 % 1015,1 hPa 0,0 l/m 0 min 0 min 0,0 UV-I 0 W/m 10,3 km/h (2 Bft)
13.06.2013 00:50 19,9 C 18,4 C 83 % 1015,2 hPa 0,0 l/m 0 min 0 min 0,0 UV-I 0 W/m 2,6 km/h (1 Bft)
13.06.2013 00:52 19,9 C 17,9 C 83 % 1015,2 hPa 0,0 l/m 0 min 0 min 0,0 UV-I 0 W/m 5,1 km/h (1 Bft)
13.06.2013 00:54 19,9 C 17,9 C 83 % 1015,2 hPa 0,0 l/m 0 min 0 min 0,0 UV-I 0 W/m 12,9 km/h (3 Bft)
13.06.2013 00:56 19,9 C 17,9 C 83 % 1015,2 hPa 0,0 l/m 0 min 0 min 0,0 UV-I 0 W/m 7,7 km/h (2 Bft)
13.06.2013 00:58 19,8 C 17,9 C 83 % 1015,1 hPa 0,0 l/m 0 min 0 min 0,0 UV-I 0 W/m 7,7 km/h (2 Bft)
13.06.2013 01:00 19,8 C 17,9 C 83 % 1015,1 hPa 0,0 l/m 0 min 0 min 0,0 UV-I 0 W/m 7,7 km/h (2 Bft)
13.06.2013 01:02 19,8 C 17,9 C 83 % 1015,1 hPa 0,0 l/m 0 min 0 min 0,0 UV-I 0 W/m 2,6 km/h (1 Bft)
13.06.2013 01:04 19,8 C 17,9 C 83 % 1015,0 hPa 0,0 l/m 0 min 0 min 0,0 UV-I 0 W/m 7,7 km/h (2 Bft)
13.06.2013 01:06 19,8 C 17,9 C 83 % 1015,0 hPa 0,0 l/m 0 min 0 min 0,0 UV-I 0 W/m 7,7 km/h (2 Bft)
13.06.2013 01:08 19,7 C 17,9 C 83 % 1015,0 hPa 0,0 l/m 0 min 0 min 0,0 UV-I 0 W/m 5,1 km/h (1 Bft)
13.06.2013 01:10 19,7 C 17,9 C 84 % 1014,9 hPa 0,0 l/m 0 min 0 min 0,0 UV-I 0 W/m 5,1 km/h (1 Bft)
13.06.2013 01:12 19,7 C 17,9 C 84 % 1015,1 hPa 0,0 l/m 0 min 0 min 0,0 UV-I 0 W/m 7,7 km/h (2 Bft)
13.06.2013 01:14 19,7 C 17,9 C 84 % 1015,0 hPa 0,0 l/m 0 min 0 min 0,0 UV-I 0 W/m 10,3 km/h (2 Bft)
13.06.2013 01:16 19,6 C 17,9 C 84 % 1015,0 hPa 0,0 l/m 0 min 0 min 0,0 UV-I 0 W/m 2,6 km/h (1 Bft)
13.06.2013 01:18 19,6 C 17,9 C 84 % 1014,9 hPa 0,0 l/m 0 min 0 min 0,0 UV-I 0 W/m 12,9 km/h (3 Bft)
13.06.2013 01:20 19,6 C 17,9 C 84 % 1014,9 hPa 0,0 l/m 0 min 0 min 0,0 UV-I 0 W/m 10,3 km/h (2 Bft)
13.06.2013 01:22 19,6 C 17,9 C 84 % 1014,9 hPa 0,0 l/m 0 min 0 min 0,0 UV-I 0 W/m 5,1 km/h (1 Bft)
13.06.2013 01:24 19,5 C 17,9 C 85 % 1015,0 hPa 0,0 l/m 0 min 0 min 0,0 UV-I 0 W/m 15,4 km/h (3 Bft)
13.06.2013 01:26 19,5 C 17,9 C 85 % 1014,9 hPa 0,0 l/m 0 min 0 min 0,0 UV-I 0 W/m 5,1 km/h (1 Bft)
13.06.2013 01:28 19,5 C 17,9 C 85 % 1014,9 hPa 0,0 l/m 0 min 0 min 0,0 UV-I 0 W/m 0,0 km/h (0 Bft)
13.06.2013 01:30 19,4 C 17,9 C 85 % 1014,9 hPa 0,0 l/m 0 min 0 min 0,0 UV-I 0 W/m 2,6 km/h (1 Bft)
13.06.2013 01:32 19,4 C 17,9 C 85 % 1014,8 hPa 0,0 l/m 0 min 0 min 0,0 UV-I 0 W/m 7,7 km/h (2 Bft)
13.06.2013 01:34 19,4 C 17,9 C 85 % 1014,8 hPa 0,0 l/m 0 min 0 min 0,0 UV-I 0 W/m 7,7 km/h (2 Bft)
13.06.2013 01:36 19,4 C 17,9 C 85 % 1014,9 hPa 0,0 l/m 0 min 0 min 0,0 UV-I 0 W/m 10,3 km/h (2 Bft)
13.06.2013 01:38 19,4 C 17,9 C 85 % 1014,9 hPa 0,0 l/m 0 min 0 min 0,0 UV-I 0 W/m 7,7 km/h (2 Bft)
13.06.2013 01:40 19,4 C 17,9 C 85 % 1014,9 hPa 0,0 l/m 0 min 0 min 0,0 UV-I 0 W/m 12,9 km/h (3 Bft)
13.06.2013 01:42 19,4 C 17,9 C 85 % 1014,8 hPa 0,0 l/m 0 min 0 min 0,0 UV-I 0 W/m 5,1 km/h (1 Bft)
13.06.2013 01:44 19,3 C 17,9 C 85 % 1014,8 hPa 0,0 l/m 0 min 0 min 0,0 UV-I 0 W/m 10,3 km/h (2 Bft)
13.06.2013 01:46 19,3 C 17,9 C 85 % 1014,9 hPa 0,0 l/m 0 min 0 min 0,0 UV-I 0 W/m 2,6 km/h (1 Bft)
13.06.2013 01:48 19,3 C 17,9 C 85 % 1014,9 hPa 0,0 l/m 0 min 0 min 0,0 UV-I 0 W/m 10,3 km/h (2 Bft)
13.06.2013 01:50 19,3 C 17,9 C 85 % 1014,9 hPa 0,0 l/m 0 min 0 min 0,0 UV-I 0 W/m 5,1 km/h (1 Bft)
13.06.2013 01:52 19,3 C 17,9 C 85 % 1014,9 hPa 0,0 l/m 0 min 0 min 0,0 UV-I 0 W/m 2,6 km/h (1 Bft)
13.06.2013 01:54 19,3 C 17,9 C 85 % 1014,9 hPa 0,0 l/m 0 min 0 min 0,0 UV-I 0 W/m 12,9 km/h (3 Bft)
13.06.2013 01:56 19,3 C 17,9 C 85 % 1014,8 hPa 0,0 l/m 0 min 0 min 0,0 UV-I 0 W/m 7,7 km/h (2 Bft)
13.06.2013 01:58 19,3 C 17,9 C 85 % 1014,8 hPa 0,0 l/m 0 min 0 min 0,0 UV-I 0 W/m 7,7 km/h (2 Bft)
13.06.2013 02:00 19,3 C 17,9 C 86 % 1014,7 hPa 0,0 l/m 0 min 0 min 0,0 UV-I 0 W/m 12,9 km/h (3 Bft)
13.06.2013 02:02 19,3 C 17,9 C 86 % 1014,7 hPa 0,0 l/m 0 min 0 min 0,0 UV-I 0 W/m 5,1 km/h (1 Bft)
13.06.2013 02:04 19,3 C 17,9 C 86 % 1014,7 hPa 0,0 l/m 0 min 0 min 0,0 UV-I 0 W/m 5,1 km/h (1 Bft)
13.06.2013 02:06 19,2 C 17,9 C 86 % 1014,7 hPa 0,0 l/m 0 min 0 min 0,0 UV-I 0 W/m 2,6 km/h (1 Bft)
13.06.2013 02:08 19,2 C 17,9 C 86 % 1014,7 hPa 0,0 l/m 0 min 0 min 0,0 UV-I 0 W/m 2,6 km/h (1 Bft)
13.06.2013 02:10 19,2 C 17,9 C 86 % 1014,7 hPa 0,0 l/m 0 min 0 min 0,0 UV-I 0 W/m 0,0 km/h (0 Bft)
13.06.2013 02:12 19,2 C 17,9 C 86 % 1014,7 hPa 0,0 l/m 0 min 0 min 0,0 UV-I 0 W/m 0,0 km/h (0 Bft)
13.06.2013 02:14 19,2 C 17,9 C 86 % 1014,7 hPa 0,0 l/m 0 min 0 min 0,0 UV-I 0 W/m 15,4 km/h (3 Bft)
13.06.2013 02:16 19,2 C 17,9 C 86 % 1014,7 hPa 0,0 l/m 0 min 0 min 0,0 UV-I 0 W/m 0,0 km/h (0 Bft)
13.06.2013 02:18 19,2 C 17,9 C 86 % 1014,7 hPa 0,0 l/m 0 min 0 min 0,0 UV-I 0 W/m 0,0 km/h (0 Bft)
13.06.2013 02:20 19,2 C 17,9 C 86 % 1014,6 hPa 0,0 l/m 0 min 0 min 0,0 UV-I 0 W/m 10,3 km/h (2 Bft)
13.06.2013 02:22 19,2 C 17,9 C 86 % 1014,6 hPa 0,0 l/m 0 min 0 min 0,0 UV-I 0 W/m 7,7 km/h (2 Bft)
13.06.2013 02:24 19,2 C 17,9 C 86 % 1014,6 hPa 0,0 l/m 0 min 0 min 0,0 UV-I 0 W/m 5,1 km/h (1 Bft)
13.06.2013 02:26 19,2 C 17,9 C 86 % 1014,5 hPa 0,0 l/m 0 min 0 min 0,0 UV-I 0 W/m 7,7 km/h (2 Bft)
13.06.2013 02:28 19,2 C 17,9 C 86 % 1014,5 hPa 0,0 l/m 0 min 0 min 0,0 UV-I 0 W/m 10,3 km/h (2 Bft)
13.06.2013 02:30 19,2 C 17,9 C 86 % 1014,5 hPa 0,0 l/m 0 min 0 min 0,0 UV-I 0 W/m 7,7 km/h (2 Bft)
13.06.2013 02:32 19,2 C 17,9 C 86 % 1014,5 hPa 0,0 l/m 0 min 0 min 0,0 UV-I 0 W/m 7,7 km/h (2 Bft)
13.06.2013 02:34 19,2 C 17,9 C 86 % 1014,5 hPa 0,0 l/m 0 min 0 min 0,0 UV-I 0 W/m 5,1 km/h (1 Bft)
13.06.2013 02:36 19,2 C 17,9 C 86 % 1014,5 hPa 0,0 l/m 0 min 0 min 0,0 UV-I 0 W/m 0,0 km/h (0 Bft)
13.06.2013 02:38 19,2 C 17,9 C 86 % 1014,4 hPa 0,0 l/m 0 min 0 min 0,0 UV-I 0 W/m 20,6 km/h (4 Bft)
13.06.2013 02:40 19,2 C 17,9 C 86 % 1014,5 hPa 0,0 l/m 0 min 0 min 0,0 UV-I 0 W/m 0,0 km/h (0 Bft)
13.06.2013 02:42 19,2 C 17,9 C 86 % 1014,4 hPa 0,0 l/m 0 min 0 min 0,0 UV-I 0 W/m 5,1 km/h (1 Bft)
13.06.2013 02:44 19,2 C 17,9 C 86 % 1014,4 hPa 0,0 l/m 0 min 0 min 0,0 UV-I 0 W/m 5,1 km/h (1 Bft)
13.06.2013 02:46 19,2 C 17,9 C 86 % 1014,4 hPa 0,0 l/m 0 min 0 min 0,0 UV-I 0 W/m 7,7 km/h (2 Bft)
13.06.2013 02:48 19,2 C 17,9 C 86 % 1014,4 hPa 0,0 l/m 0 min 0 min 0,0 UV-I 0 W/m 0,0 km/h (0 Bft)
13.06.2013 02:50 19,2 C 17,9 C 86 % 1014,3 hPa 0,0 l/m 0 min 0 min 0,0 UV-I 0 W/m 7,7 km/h (2 Bft)
13.06.2013 02:52 19,2 C 17,9 C 86 % 1014,4 hPa 0,0 l/m 0 min 0 min 0,0 UV-I 0 W/m 2,6 km/h (1 Bft)
13.06.2013 02:54 19,2 C 17,9 C 86 % 1014,4 hPa 0,0 l/m 0 min 0 min 0,0 UV-I 0 W/m 12,9 km/h (3 Bft)
13.06.2013 02:56 19,2 C 17,9 C 86 % 1014,4 hPa 0,0 l/m 0 min 0 min 0,0 UV-I 0 W/m 7,7 km/h (2 Bft)
13.06.2013 02:58 19,2 C 17,9 C 86 % 1014,4 hPa 0,0 l/m 0 min 0 min 0,0 UV-I 0 W/m 10,3 km/h (2 Bft)
13.06.2013 03:00 19,2 C 17,9 C 86 % 1014,4 hPa 0,0 l/m 0 min 0 min 0,0 UV-I 0 W/m 0,0 km/h (0 Bft)
13.06.2013 03:02 19,2 C 17,9 C 86 % 1014,4 hPa 0,0 l/m 0 min 0 min 0,0 UV-I 0 W/m 10,3 km/h (2 Bft)
13.06.2013 03:07 19,2 C 17,9 C 86 % 1014,4 hPa 0,0 l/m 0 min 0 min 0,0 UV-I 0 W/m 2,6 km/h (1 Bft)
13.06.2013 03:09 19,2 C 17,9 C 86 % 1014,4 hPa 0,0 l/m 0 min 0 min 0,0 UV-I 0 W/m 2,6 km/h (1 Bft)
13.06.2013 03:12 19,2 C 17,9 C 86 % 1014,5 hPa 0,0 l/m 0 min 0 min 0,0 UV-I 0 W/m 7,7 km/h (2 Bft)
13.06.2013 03:14 19,2 C 17,9 C 86 % 1014,4 hPa 0,0 l/m 0 min 0 min 0,0 UV-I 0 W/m 10,3 km/h (2 Bft)
13.06.2013 03:16 19,2 C 17,9 C 86 % 1014,3 hPa 0,0 l/m 0 min 0 min 0,0 UV-I 0 W/m 10,3 km/h (2 Bft)
13.06.2013 03:18 19,2 C 17,9 C 86 % 1014,3 hPa 0,0 l/m 0 min 0 min 0,0 UV-I 0 W/m 0,0 km/h (0 Bft)
13.06.2013 03:20 19,1 C 17,9 C 86 % 1014,3 hPa 0,0 l/m 0 min 0 min 0,0 UV-I 0 W/m 0,0 km/h (0 Bft)
13.06.2013 03:22 19,2 C 17,9 C 86 % 1014,3 hPa 0,0 l/m 0 min 0 min 0,0 UV-I 0 W/m 0,0 km/h (0 Bft)
13.06.2013 03:24 19,1 C 17,9 C 86 % 1014,1 hPa 0,0 l/m 0 min 0 min 0,0 UV-I 0 W/m 0,0 km/h (0 Bft)
13.06.2013 03:26 19,1 C 17,9 C 86 % 1014,0 hPa 0,0 l/m 0 min 0 min 0,0 UV-I 0 W/m 0,0 km/h (0 Bft)
13.06.2013 03:28 19,1 C 17,9 C 86 % 1014,0 hPa 0,0 l/m 0 min 0 min 0,0 UV-I 0 W/m 0,0 km/h (0 Bft)
13.06.2013 03:30 19,1 C 17,9 C 86 % 1014,0 hPa 0,0 l/m 0 min 0 min 0,0 UV-I 0 W/m 0,0 km/h (0 Bft)
13.06.2013 03:32 19,1 C 17,9 C 86 % 1013,9 hPa 0,0 l/m 0 min 0 min 0,0 UV-I 0 W/m 0,0 km/h (0 Bft)
13.06.2013 03:34 19,1 C 17,9 C 86 % 1013,9 hPa 0,0 l/m 0 min 0 min 0,0 UV-I 0 W/m 0,0 km/h (0 Bft)
13.06.2013 03:36 19,1 C 17,9 C 86 % 1013,9 hPa 0,0 l/m 0 min 0 min 0,0 UV-I 0 W/m 0,0 km/h (0 Bft)
13.06.2013 03:38 19,1 C 17,9 C 86 % 1013,9 hPa 0,0 l/m 0 min 0 min 0,0 UV-I 0 W/m 0,0 km/h (0 Bft)
13.06.2013 03:40 19,1 C 17,9 C 86 % 1013,9 hPa 0,0 l/m 0 min 0 min 0,0 UV-I 0 W/m 0,0 km/h (0 Bft)
13.06.2013 03:42 19,1 C 17,9 C 86 % 1014,0 hPa 0,0 l/m 0 min 0 min 0,0 UV-I 0 W/m 0,0 km/h (0 Bft)
13.06.2013 03:44 19,1 C 17,3 C 86 % 1014,0 hPa 0,0 l/m 0 min 0 min 0,0 UV-I 0 W/m 0,0 km/h (0 Bft)
13.06.2013 03:46 19,1 C 17,9 C 86 % 1014,0 hPa 0,0 l/m 0 min 0 min 0,0 UV-I 0 W/m 0,0 km/h (0 Bft)
13.06.2013 03:48 19,1 C 17,9 C 86 % 1014,1 hPa 0,0 l/m 0 min 0 min 0,0 UV-I 0 W/m 0,0 km/h (0 Bft)
13.06.2013 03:50 19,1 C 17,9 C 86 % 1014,1 hPa 0,0 l/m 0 min 0 min 0,0 UV-I 0 W/m 0,0 km/h (0 Bft)
13.06.2013 03:52 19,1 C 17,9 C 86 % 1014,2 hPa 0,0 l/m 0 min 0 min 0,0 UV-I 0 W/m 0,0 km/h (0 Bft)
13.06.2013 03:54 19,1 C 17,9 C 86 % 1014,2 hPa 0,0 l/m 0 min 0 min 0,0 UV-I 0 W/m 0,0 km/h (0 Bft)
13.06.2013 03:56 19,1 C 17,9 C 86 % 1014,1 hPa 0,0 l/m 0 min 0 min 0,0 UV-I 0 W/m 0,0 km/h (0 Bft)
13.06.2013 03:58 19,1 C 17,9 C 86 % 1014,1 hPa 0,0 l/m 0 min 0 min 0,0 UV-I 0 W/m 0,0 km/h (0 Bft)
13.06.2013 04:00 19,1 C 17,9 C 86 % 1014,1 hPa 0,0 l/m 0 min 0 min 0,0 UV-I 0 W/m 0,0 km/h (0 Bft)
13.06.2013 04:02 19,1 C 17,9 C 86 % 1014,1 hPa 0,0 l/m 0 min 0 min 0,0 UV-I 0 W/m 0,0 km/h (0 Bft)
13.06.2013 04:04 19,1 C 17,9 C 86 % 1014,1 hPa 0,0 l/m 0 min 0 min 0,0 UV-I 0 W/m 0,0 km/h (0 Bft)
13.06.2013 04:06 19,1 C 17,9 C 86 % 1014,1 hPa 0,0 l/m 0 min 0 min 0,0 UV-I 0 W/m 0,0 km/h (0 Bft)
13.06.2013 04:08 19,1 C 17,9 C 86 % 1014,1 hPa 0,0 l/m 0 min 0 min 0,0 UV-I 0 W/m 12,9 km/h (3 Bft)
13.06.2013 04:10 19,1 C 17,9 C 86 % 1014,2 hPa 0,0 l/m 0 min 0 min 0,0 UV-I 0 W/m 2,6 km/h (1 Bft)
13.06.2013 04:12 19,1 C 17,9 C 86 % 1014,1 hPa 0,0 l/m 0 min 0 min 0,0 UV-I 0 W/m 7,7 km/h (2 Bft)
13.06.2013 04:14 19,1 C 17,9 C 86 % 1014,1 hPa 0,0 l/m 0 min 0 min 0,0 UV-I 0 W/m 10,3 km/h (2 Bft)
13.06.2013 04:16 19,1 C 17,9 C 86 % 1014,1 hPa 0,0 l/m 0 min 0 min 0,0 UV-I 0 W/m 2,6 km/h (1 Bft)
13.06.2013 04:18 19,1 C 17,9 C 86 % 1014,0 hPa 0,0 l/m 0 min 0 min 0,0 UV-I 0 W/m 10,3 km/h (2 Bft)
13.06.2013 04:20 19,1 C 17,9 C 86 % 1013,9 hPa 0,0 l/m 0 min 0 min 0,0 UV-I 0 W/m 0,0 km/h (0 Bft)
13.06.2013 04:22 19,1 C 17,9 C 86 % 1013,9 hPa 0,0 l/m 0 min 0 min 0,0 UV-I 0 W/m 10,3 km/h (2 Bft)
13.06.2013 04:24 19,1 C 17,9 C 86 % 1013,9 hPa 0,0 l/m 0 min 0 min 0,0 UV-I 0 W/m 5,1 km/h (1 Bft)
13.06.2013 04:26 19,1 C 17,9 C 86 % 1013,9 hPa 0,0 l/m 0 min 0 min 0,0 UV-I 0 W/m 12,9 km/h (3 Bft)
13.06.2013 04:28 19,1 C 17,9 C 86 % 1013,9 hPa 0,0 l/m 0 min 0 min 0,0 UV-I 0 W/m 12,9 km/h (3 Bft)
13.06.2013 04:30 19,1 C 17,9 C 86 % 1014,0 hPa 0,0 l/m 0 min 0 min 0,0 UV-I 0 W/m 10,3 km/h (2 Bft)
13.06.2013 04:32 19,1 C 17,9 C 86 % 1014,0 hPa 0,0 l/m 0 min 0 min 0,0 UV-I 0 W/m 7,7 km/h (2 Bft)
13.06.2013 04:34 19,1 C 17,9 C 86 % 1014,0 hPa 0,0 l/m 0 min 0 min 0,0 UV-I 0 W/m 2,6 km/h (1 Bft)
13.06.2013 04:36 19,1 C 17,9 C 86 % 1014,0 hPa 0,0 l/m 0 min 0 min 0,0 UV-I 0 W/m 10,3 km/h (2 Bft)
13.06.2013 04:38 19,1 C 17,9 C 86 % 1013,9 hPa 0,0 l/m 0 min 0 min 0,0 UV-I 0 W/m 5,1 km/h (1 Bft)
13.06.2013 04:40 19,1 C 17,9 C 86 % 1014,0 hPa 0,0 l/m 0 min 0 min 0,0 UV-I 0 W/m 0,0 km/h (0 Bft)
13.06.2013 04:42 19,2 C 17,9 C 86 % 1013,9 hPa 0,0 l/m 0 min 0 min 0,0 UV-I 0 W/m 0,0 km/h (0 Bft)
13.06.2013 04:44 19,1 C 17,9 C 86 % 1013,9 hPa 0,0 l/m 0 min 0 min 0,0 UV-I 0 W/m 0,0 km/h (0 Bft)
13.06.2013 04:46 19,1 C 17,3 C 86 % 1013,9 hPa 0,0 l/m 0 min 0 min 0,0 UV-I 0 W/m 0,0 km/h (0 Bft)
13.06.2013 04:48 19,1 C 17,9 C 86 % 1013,9 hPa 0,0 l/m 0 min 0 min 0,0 UV-I 0 W/m 10,3 km/h (2 Bft)
13.06.2013 04:50 19,1 C 17,9 C 86 % 1013,8 hPa 0,0 l/m 0 min 0 min 0,0 UV-I 0 W/m 2,6 km/h (1 Bft)
13.06.2013 04:52 19,1 C 17,9 C 86 % 1013,8 hPa 0,0 l/m 0 min 0 min 0,0 UV-I 0 W/m 5,1 km/h (1 Bft)
13.06.2013 04:54 19,1 C 17,9 C 86 % 1013,9 hPa 0,0 l/m 0 min 0 min 0,0 UV-I 0 W/m 12,9 km/h (3 Bft)
13.06.2013 04:56 19,1 C 17,9 C 86 % 1013,8 hPa 0,0 l/m 0 min 0 min 0,0 UV-I 0 W/m 15,4 km/h (3 Bft)
13.06.2013 04:58 19,1 C 17,9 C 86 % 1013,8 hPa 0,0 l/m 0 min 0 min 0,0 UV-I 0 W/m 10,3 km/h (2 Bft)
13.06.2013 05:00 19,1 C 17,9 C 86 % 1013,7 hPa 0,0 l/m 0 min 0 min 0,0 UV-I 0 W/m 2,6 km/h (1 Bft)
13.06.2013 05:02 19,1 C 17,9 C 86 % 1013,7 hPa 0,0 l/m 0 min 0 min 0,0 UV-I 0 W/m 5,1 km/h (1 Bft)
13.06.2013 05:04 19,1 C 17,9 C 86 % 1013,7 hPa 0,0 l/m 0 min 0 min 0,0 UV-I 0 W/m 7,7 km/h (2 Bft)
13.06.2013 05:06 19,1 C 17,9 C 86 % 1013,6 hPa 0,0 l/m 0 min 0 min 0,0 UV-I 0 W/m 15,4 km/h (3 Bft)
13.06.2013 05:08 19,1 C 17,9 C 86 % 1013,6 hPa 0,0 l/m 0 min 0 min 0,0 UV-I 0 W/m 5,1 km/h (1 Bft)
13.06.2013 05:10 19,1 C 17,9 C 86 % 1013,6 hPa 0,0 l/m 0 min 0 min 0,0 UV-I 0 W/m 0,0 km/h (0 Bft)
13.06.2013 05:12 19,1 C 17,9 C 86 % 1013,6 hPa 0,0 l/m 0 min 0 min 0,0 UV-I 0 W/m 5,1 km/h (1 Bft)
13.06.2013 05:14 19,1 C 17,9 C 86 % 1013,6 hPa 0,0 l/m 0 min 0 min 0,0 UV-I 0 W/m 2,6 km/h (1 Bft)
13.06.2013 05:16 19,1 C 17,9 C 86 % 1013,6 hPa 0,0 l/m 0 min 0 min 0,0 UV-I 0 W/m 5,1 km/h (1 Bft)
13.06.2013 05:18 19,1 C 17,9 C 86 % 1013,6 hPa 0,0 l/m 0 min 0 min 0,0 UV-I 0 W/m 2,6 km/h (1 Bft)
13.06.2013 05:20 19,1 C 17,9 C 86 % 1013,6 hPa 0,0 l/m 0 min 0 min 0,0 UV-I 0 W/m 5,1 km/h (1 Bft)
13.06.2013 05:22 19,1 C 17,9 C 86 % 1013,6 hPa 0,0 l/m 0 min 0 min 0,0 UV-I 0 W/m 5,1 km/h (1 Bft)
13.06.2013 05:24 19,1 C 17,9 C 86 % 1013,6 hPa 0,0 l/m 0 min 0 min 0,0 UV-I 0 W/m 2,6 km/h (1 Bft)
13.06.2013 05:26 19,1 C 17,9 C 86 % 1013,6 hPa 0,0 l/m 0 min 0 min 0,0 UV-I 0 W/m 5,1 km/h (1 Bft)
13.06.2013 05:28 19,1 C 17,9 C 86 % 1013,6 hPa 0,0 l/m 0 min 0 min 0,0 UV-I 0 W/m 2,6 km/h (1 Bft)
13.06.2013 05:30 19,1 C 17,9 C 86 % 1013,6 hPa 0,0 l/m 0 min 0 min 0,0 UV-I 0 W/m 10,3 km/h (2 Bft)
13.06.2013 05:32 19,1 C 17,9 C 86 % 1013,6 hPa 0,0 l/m 0 min 0 min 0,0 UV-I 0 W/m 7,7 km/h (2 Bft)
13.06.2013 05:34 19,1 C 17,9 C 86 % 1013,6 hPa 0,0 l/m 0 min 0 min 0,0 UV-I 0 W/m 10,3 km/h (2 Bft)
13.06.2013 05:36 19,1 C 17,9 C 86 % 1013,7 hPa 0,0 l/m 0 min 0 min 0,0 UV-I 5 W/m 7,7 km/h (2 Bft)
13.06.2013 05:38 19,1 C 17,9 C 86 % 1013,6 hPa 0,0 l/m 0 min 0 min 0,0 UV-I 5 W/m 2,6 km/h (1 Bft)
13.06.2013 05:40 19,1 C 17,9 C 86 % 1013,7 hPa 0,0 l/m 0 min 0 min 0,0 UV-I 7 W/m 15,4 km/h (3 Bft)
13.06.2013 05:42 19,1 C 17,9 C 86 % 1013,7 hPa 0,0 l/m 0 min 0 min 0,0 UV-I 7 W/m 5,1 km/h (1 Bft)
13.06.2013 05:44 19,1 C 17,9 C 86 % 1013,7 hPa 0,0 l/m 0 min 0 min 0,0 UV-I 7 W/m 15,4 km/h (3 Bft)
13.06.2013 05:46 19,1 C 17,9 C 86 % 1013,7 hPa 0,0 l/m 0 min 0 min 0,0 UV-I 11 W/m 10,3 km/h (2 Bft)
13.06.2013 05:48 19,1 C 17,9 C 86 % 1013,6 hPa 0,0 l/m 0 min 0 min 0,0 UV-I 11 W/m 5,1 km/h (1 Bft)
13.06.2013 05:50 19,1 C 17,9 C 86 % 1013,6 hPa 0,0 l/m 0 min 0 min 0,0 UV-I 11 W/m 2,6 km/h (1 Bft)
13.06.2013 05:52 19,1 C 17,9 C 86 % 1013,6 hPa 0,0 l/m 0 min 0 min 0,0 UV-I 12 W/m 7,7 km/h (2 Bft)
13.06.2013 05:54 19,1 C 17,9 C 86 % 1013,7 hPa 0,0 l/m 0 min 0 min 0,0 UV-I 14 W/m 5,1 km/h (1 Bft)
13.06.2013 05:56 19,1 C 17,9 C 86 % 1013,7 hPa 0,0 l/m 0 min 0 min 0,0 UV-I 14 W/m 10,3 km/h (2 Bft)
13.06.2013 05:58 19,1 C 17,9 C 86 % 1013,7 hPa 0,0 l/m 0 min 0 min 0,0 UV-I 11 W/m 2,6 km/h (1 Bft)
13.06.2013 06:00 19,1 C 17,9 C 86 % 1013,7 hPa 0,0 l/m 0 min 0 min 0,0 UV-I 16 W/m 10,3 km/h (2 Bft)
13.06.2013 06:02 19,1 C 17,9 C 86 % 1013,9 hPa 0,0 l/m 0 min 0 min 0,0 UV-I 23 W/m 5,1 km/h (1 Bft)
13.06.2013 06:04 19,1 C 17,9 C 86 % 1013,8 hPa 0,0 l/m 0 min 0 min 0,0 UV-I 28 W/m 5,1 km/h (1 Bft)
13.06.2013 06:06 19,1 C 17,9 C 86 % 1013,7 hPa 0,0 l/m 0 min 0 min 0,0 UV-I 28 W/m 10,3 km/h (2 Bft)
13.06.2013 06:08 19,1 C 17,9 C 86 % 1013,7 hPa 0,0 l/m 0 min 0 min 0,0 UV-I 26 W/m 2,6 km/h (1 Bft)
13.06.2013 06:10 19,2 C 17,9 C 86 % 1013,6 hPa 0,0 l/m 0 min 0 min 0,0 UV-I 28 W/m 2,6 km/h (1 Bft)
13.06.2013 06:12 19,2 C 17,9 C 86 % 1013,5 hPa 0,0 l/m 0 min 0 min 0,0 UV-I 30 W/m 7,7 km/h (2 Bft)
13.06.2013 06:14 19,2 C 17,9 C 86 % 1013,5 hPa 0,0 l/m 0 min 0 min 0,0 UV-I 32 W/m 7,7 km/h (2 Bft)
13.06.2013 06:16 19,2 C 17,9 C 86 % 1013,5 hPa 0,0 l/m 0 min 0 min 0,0 UV-I 33 W/m 0,0 km/h (0 Bft)
13.06.2013 06:18 19,2 C 17,9 C 86 % 1013,7 hPa 0,0 l/m 0 min 0 min 0,0 UV-I 33 W/m 0,0 km/h (0 Bft)
13.06.2013 06:20 19,2 C 17,9 C 86 % 1013,7 hPa 0,0 l/m 0 min 0 min 0,0 UV-I 25 W/m 20,6 km/h (4 Bft)
13.06.2013 06:22 19,2 C 17,9 C 86 % 1013,7 hPa 0,0 l/m 0 min 0 min 0,0 UV-I 21 W/m 7,7 km/h (2 Bft)
13.06.2013 06:24 19,2 C 17,9 C 86 % 1013,7 hPa 0,0 l/m 0 min 0 min 0,0 UV-I 25 W/m 15,4 km/h (3 Bft)
13.06.2013 06:26 19,2 C 17,9 C 86 % 1013,8 hPa 0,0 l/m 0 min 0 min 0,0 UV-I 26 W/m 5,1 km/h (1 Bft)
13.06.2013 06:28 19,2 C 18,4 C 86 % 1013,7 hPa 0,0 l/m 0 min 0 min 0,0 UV-I 23 W/m 2,6 km/h (1 Bft)
13.06.2013 06:30 19,2 C 17,9 C 86 % 1013,7 hPa 0,0 l/m 0 min 0 min 0,0 UV-I 32 W/m 2,6 km/h (1 Bft)
13.06.2013 06:32 19,2 C 17,9 C 86 % 1013,7 hPa 0,0 l/m 0 min 0 min 0,0 UV-I 33 W/m 5,1 km/h (1 Bft)
13.06.2013 06:34 19,3 C 17,9 C 86 % 1013,7 hPa 0,0 l/m 0 min 0 min 0,0 UV-I 33 W/m 7,7 km/h (2 Bft)
13.06.2013 06:36 19,3 C 18,4 C 85 % 1013,7 hPa 0,0 l/m 0 min 0 min 0,0 UV-I 37 W/m 12,9 km/h (3 Bft)
13.06.2013 06:38 19,3 C 18,4 C 85 % 1013,7 hPa 0,0 l/m 0 min 0 min 0,0 UV-I 42 W/m 12,9 km/h (3 Bft)
13.06.2013 06:40 19,3 C 18,4 C 85 % 1013,7 hPa 0,0 l/m 0 min 0 min 0,0 UV-I 42 W/m 15,4 km/h (3 Bft)
13.06.2013 06:42 19,3 C 18,4 C 85 % 1013,7 hPa 0,0 l/m 0 min 0 min 0,0 UV-I 37 W/m 5,1 km/h (1 Bft)
13.06.2013 06:44 19,3 C 18,4 C 85 % 1013,7 hPa 0,0 l/m 0 min 0 min 0,0 UV-I 33 W/m 2,6 km/h (1 Bft)
13.06.2013 06:46 19,3 C 18,4 C 85 % 1013,6 hPa 0,0 l/m 0 min 0 min 0,0 UV-I 40 W/m 12,9 km/h (3 Bft)
13.06.2013 06:48 19,3 C 18,4 C 85 % 1013,6 hPa 0,0 l/m 0 min 0 min 0,0 UV-I 39 W/m 12,9 km/h (3 Bft)
13.06.2013 06:50 19,3 C 18,4 C 85 % 1013,5 hPa 0,0 l/m 0 min 0 min 0,0 UV-I 35 W/m 23,2 km/h (4 Bft)
13.06.2013 06:52 19,3 C 18,4 C 85 % 1013,5 hPa 0,0 l/m 0 min 0 min 0,0 UV-I 33 W/m 5,1 km/h (1 Bft)
13.06.2013 06:54 19,4 C 18,4 C 85 % 1013,6 hPa 0,0 l/m 0 min 0 min 0,0 UV-I 30 W/m 15,4 km/h (3 Bft)
13.06.2013 06:56 19,4 C 18,4 C 85 % 1013,5 hPa 0,0 l/m 0 min 0 min 0,0 UV-I 28 W/m 20,6 km/h (4 Bft)
13.06.2013 06:58 19,4 C 17,9 C 85 % 1013,6 hPa 0,0 l/m 0 min 0 min 0,0 UV-I 26 W/m 0,0 km/h (0 Bft)
13.06.2013 07:00 19,4 C 17,9 C 85 % 1013,5 hPa 0,0 l/m 0 min 2 min 0,0 UV-I 28 W/m 10,3 km/h (2 Bft)
13.06.2013 07:02 19,4 C 17,9 C 85 % 1013,5 hPa 0,0 l/m 0 min 2 min 0,0 UV-I 33 W/m 5,1 km/h (1 Bft)
13.06.2013 07:04 19,4 C 17,3 C 85 % 1013,5 hPa 0,0 l/m 0 min 2 min 0,0 UV-I 33 W/m 10,3 km/h (2 Bft)
13.06.2013 07:06 19,4 C 17,3 C 85 % 1013,5 hPa 0,0 l/m 0 min 2 min 0,0 UV-I 35 W/m 0,0 km/h (0 Bft)
13.06.2013 07:08 19,4 C 16,8 C 85 % 1013,5 hPa 0,0 l/m 0 min 2 min 0,0 UV-I 35 W/m 5,1 km/h (1 Bft)
13.06.2013 07:10 19,4 C 16,8 C 85 % 1013,6 hPa 0,0 l/m 0 min 2 min 0,0 UV-I 40 W/m 0,0 km/h (0 Bft)
13.06.2013 07:12 19,4 C 16,8 C 86 % 1013,6 hPa 0,2 l/m 0 min 2 min 0,0 UV-I 46 W/m 2,6 km/h (1 Bft)
13.06.2013 07:14 19,4 C 16,8 C 86 % 1013,5 hPa 0,0 l/m 0 min 2 min 0,0 UV-I 54 W/m 15,4 km/h (3 Bft)
13.06.2013 07:16 19,4 C 16,8 C 86 % 1013,6 hPa 0,0 l/m 0 min 2 min 0,0 UV-I 54 W/m 12,9 km/h (3 Bft)
13.06.2013 07:18 19,3 C 16,2 C 86 % 1013,5 hPa 0,0 l/m 0 min 2 min 0,0 UV-I 47 W/m 12,9 km/h (3 Bft)
13.06.2013 07:20 19,3 C 16,2 C 86 % 1013,5 hPa 0,0 l/m 0 min 2 min 0,0 UV-I 35 W/m 10,3 km/h (2 Bft)
13.06.2013 07:22 19,3 C 16,2 C 86 % 1013,5 hPa 0,0 l/m 0 min 2 min 0,0 UV-I 30 W/m 5,1 km/h (1 Bft)
13.06.2013 07:24 19,3 C 16,2 C 86 % 1013,5 hPa 0,0 l/m 0 min 2 min 0,0 UV-I 26 W/m 7,7 km/h (2 Bft)
13.06.2013 07:26 19,3 C 16,2 C 87 % 1013,5 hPa 0,0 l/m 0 min 2 min 0,0 UV-I 25 W/m 2,6 km/h (1 Bft)
13.06.2013 07:28 19,3 C 16,2 C 87 % 1013,5 hPa 0,0 l/m 0 min 2 min 0,0 UV-I 28 W/m 0,0 km/h (0 Bft)
13.06.2013 07:30 19,2 C 16,2 C 87 % 1013,7 hPa 0,0 l/m 0 min 2 min 0,0 UV-I 32 W/m 2,6 km/h (1 Bft)
13.06.2013 07:32 19,2 C 16,2 C 87 % 1013,7 hPa 0,0 l/m 0 min 2 min 0,0 UV-I 44 W/m 7,7 km/h (2 Bft)
13.06.2013 07:34 19,2 C 16,2 C 87 % 1013,7 hPa 0,0 l/m 0 min 2 min 0,0 UV-I 53 W/m 2,6 km/h (1 Bft)
13.06.2013 07:36 19,2 C 16,2 C 87 % 1013,6 hPa 0,0 l/m 0 min 2 min 0,0 UV-I 58 W/m 0,0 km/h (0 Bft)
13.06.2013 07:38 19,2 C 16,2 C 87 % 1013,7 hPa 0,0 l/m 0 min 2 min 0,0 UV-I 62 W/m 5,1 km/h (1 Bft)
13.06.2013 07:40 19,1 C 16,2 C 88 % 1013,6 hPa 0,0 l/m 0 min 2 min 0,0 UV-I 62 W/m 7,7 km/h (2 Bft)
13.06.2013 07:42 19,1 C 16,2 C 88 % 1013,6 hPa 0,0 l/m 0 min 2 min 0,0 UV-I 74 W/m 7,7 km/h (2 Bft)
13.06.2013 07:44 19,1 C 16,2 C 88 % 1013,6 hPa 0,0 l/m 0 min 0 min 0,0 UV-I 83 W/m 2,6 km/h (1 Bft)
13.06.2013 07:46 19,1 C 16,8 C 88 % 1013,6 hPa 0,0 l/m 0 min 0 min 0,0 UV-I 86 W/m 7,7 km/h (2 Bft)
13.06.2013 07:48 19,0 C 16,8 C 88 % 1013,5 hPa 0,0 l/m 0 min 0 min 0,0 UV-I 79 W/m 12,9 km/h (3 Bft)
13.06.2013 07:50 19,0 C 16,8 C 88 % 1013,6 hPa 0,0 l/m 0 min 0 min 0,0 UV-I 76 W/m 10,3 km/h (2 Bft)
13.06.2013 07:52 18,9 C 16,8 C 88 % 1013,6 hPa 0,0 l/m 0 min 0 min 0,0 UV-I 77 W/m 12,9 km/h (3 Bft)
13.06.2013 07:54 18,9 C 16,2 C 88 % 1013,6 hPa 0,0 l/m 0 min 0 min 0,0 UV-I 79 W/m 15,4 km/h (3 Bft)
13.06.2013 07:56 18,9 C 16,8 C 88 % 1013,6 hPa 0,0 l/m 0 min 2 min 0,0 UV-I 72 W/m 5,1 km/h (1 Bft)
13.06.2013 07:58 18,9 C 16,8 C 88 % 1013,6 hPa 0,0 l/m 0 min 0 min 0,0 UV-I 62 W/m 0,0 km/h (0 Bft)
13.06.2013 08:00 18,9 C 16,8 C 88 % 1013,5 hPa 0,0 l/m 0 min 2 min 0,0 UV-I 56 W/m 15,4 km/h (3 Bft)
13.06.2013 08:02 18,9 C 16,8 C 89 % 1013,6 hPa 0,0 l/m 0 min 0 min 0,0 UV-I 56 W/m 0,0 km/h (0 Bft)
13.06.2013 08:04 18,9 C 16,8 C 89 % 1013,7 hPa 0,0 l/m 0 min 0 min 0,0 UV-I 58 W/m 2,6 km/h (1 Bft)
13.06.2013 08:06 18,9 C 16,8 C 89 % 1013,7 hPa 0,0 l/m 0 min 0 min 0,0 UV-I 69 W/m 7,7 km/h (2 Bft)
13.06.2013 08:08 18,9 C 16,8 C 89 % 1013,8 hPa 0,0 l/m 0 min 0 min 0,0 UV-I 74 W/m 10,3 km/h (2 Bft)
13.06.2013 08:10 18,9 C 16,8 C 89 % 1013,7 hPa 0,0 l/m 0 min 2 min 0,0 UV-I 95 W/m 7,7 km/h (2 Bft)
13.06.2013 08:12 18,9 C 16,8 C 89 % 1013,7 hPa 0,0 l/m 0 min 2 min 0,0 UV-I 102 W/m 10,3 km/h (2 Bft)
13.06.2013 08:14 18,9 C 17,3 C 89 % 1013,7 hPa 0,0 l/m 0 min 0 min 0,0 UV-I 84 W/m 7,7 km/h (2 Bft)
13.06.2013 08:16 18,9 C 17,3 C 89 % 1013,9 hPa 0,0 l/m 0 min 0 min 0,0 UV-I 65 W/m 10,3 km/h (2 Bft)
13.06.2013 08:18 18,9 C 17,3 C 89 % 1013,8 hPa 0,0 l/m 0 min 0 min 0,0 UV-I 60 W/m 7,7 km/h (2 Bft)
13.06.2013 08:20 18,9 C 17,3 C 89 % 1013,9 hPa 0,0 l/m 0 min 0 min 0,0 UV-I 62 W/m 7,7 km/h (2 Bft)
13.06.2013 08:22 18,9 C 17,3 C 89 % 1013,8 hPa 0,0 l/m 0 min 0 min 0,0 UV-I 62 W/m 18,0 km/h (3 Bft)
13.06.2013 08:24 18,9 C 17,3 C 89 % 1013,7 hPa 0,0 l/m 0 min 2 min 0,0 UV-I 60 W/m 7,7 km/h (2 Bft)
13.06.2013 08:26 18,9 C 17,3 C 89 % 1013,8 hPa 0,0 l/m 0 min 0 min 0,0 UV-I 58 W/m 7,7 km/h (2 Bft)
13.06.2013 08:28 18,9 C 17,3 C 88 % 1013,7 hPa 0,0 l/m 0 min 2 min 0,0 UV-I 60 W/m 10,3 km/h (2 Bft)
13.06.2013 08:30 18,9 C 17,3 C 88 % 1013,7 hPa 0,0 l/m 0 min 2 min 0,0 UV-I 67 W/m 7,7 km/h (2 Bft)
13.06.2013 08:32 19,0 C 17,3 C 88 % 1013,7 hPa 0,0 l/m 0 min 2 min 0,0 UV-I 70 W/m 7,7 km/h (2 Bft)
13.06.2013 08:34 19,0 C 17,3 C 88 % 1013,8 hPa 0,0 l/m 0 min 2 min 0,0 UV-I 74 W/m 12,9 km/h (3 Bft)
13.06.2013 08:36 19,0 C 17,3 C 88 % 1013,7 hPa 0,0 l/m 0 min 2 min 0,0 UV-I 91 W/m 0,0 km/h (0 Bft)
13.06.2013 08:38 19,0 C 17,3 C 88 % 1013,7 hPa 0,0 l/m 0 min 2 min 0,0 UV-I 107 W/m 0,0 km/h (0 Bft)
13.06.2013 08:40 19,0 C 17,3 C 88 % 1013,7 hPa 0,0 l/m 0 min 2 min 0,0 UV-I 114 W/m 2,6 km/h (1 Bft)
13.06.2013 08:42 19,1 C 17,9 C 88 % 1013,7 hPa 0,0 l/m 0 min 0 min 0,0 UV-I 127 W/m 7,7 km/h (2 Bft)
13.06.2013 08:44 19,1 C 17,9 C 88 % 1013,7 hPa 0,0 l/m 0 min 0 min 0,0 UV-I 100 W/m 7,7 km/h (2 Bft)
13.06.2013 08:46 19,1 C 17,9 C 88 % 1013,7 hPa 0,0 l/m 0 min 0 min 0,0 UV-I 95 W/m 10,3 km/h (2 Bft)
13.06.2013 08:48 19,1 C 17,9 C 88 % 1013,7 hPa 0,0 l/m 0 min 0 min 0,0 UV-I 107 W/m 10,3 km/h (2 Bft)
13.06.2013 08:50 19,1 C 17,9 C 88 % 1013,7 hPa 0,0 l/m 0 min 0 min 0,0 UV-I 114 W/m 7,7 km/h (2 Bft)
13.06.2013 08:52 19,2 C 18,4 C 88 % 1013,8 hPa 0,0 l/m 0 min 0 min 0,0 UV-I 135 W/m 12,9 km/h (3 Bft)
13.06.2013 08:54 19,2 C 18,4 C 88 % 1013,7 hPa 0,0 l/m 0 min 0 min 0,0 UV-I 158 W/m 12,9 km/h (3 Bft)
13.06.2013 08:56 19,2 C 19,0 C 88 % 1013,6 hPa 0,0 l/m 0 min 0 min 0,0 UV-I 139 W/m 5,1 km/h (1 Bft)
13.06.2013 08:58 19,3 C 19,0 C 88 % 1013,7 hPa 0,0 l/m 0 min 0 min 0,0 UV-I 127 W/m 12,9 km/h (3 Bft)
13.06.2013 09:00 19,3 C 19,0 C 88 % 1013,7 hPa 0,0 l/m 0 min 0 min 0,0 UV-I 132 W/m 7,7 km/h (2 Bft)
13.06.2013 09:02 19,3 C 19,0 C 88 % 1013,7 hPa 0,0 l/m 0 min 0 min 0,0 UV-I 132 W/m 7,7 km/h (2 Bft)
13.06.2013 09:04 19,4 C 19,0 C 87 % 1013,7 hPa 0,0 l/m 0 min 0 min 0,0 UV-I 127 W/m 12,9 km/h (3 Bft)
13.06.2013 09:06 19,4 C 19,0 C 87 % 1013,8 hPa 0,0 l/m 0 min 0 min 0,0 UV-I 153 W/m 10,3 km/h (2 Bft)
13.06.2013 09:08 19,4 C 19,0 C 87 % 1013,8 hPa 0,0 l/m 0 min 0 min 0,0 UV-I 141 W/m 18,0 km/h (3 Bft)
13.06.2013 09:10 19,4 C 19,0 C 87 % 1013,8 hPa 0,0 l/m 0 min 0 min 0,0 UV-I 158 W/m 15,4 km/h (3 Bft)
13.06.2013 09:12 19,5 C 19,0 C 87 % 1013,8 hPa 0,0 l/m 0 min 0 min 0,0 UV-I 146 W/m 15,4 km/h (3 Bft)
13.06.2013 09:14 19,6 C 19,0 C 87 % 1013,7 hPa 0,0 l/m 0 min 0 min 0,0 UV-I 155 W/m 15,4 km/h (3 Bft)
13.06.2013 09:16 19,6 C 19,0 C 87 % 1013,7 hPa 0,0 l/m 0 min 0 min 0,0 UV-I 188 W/m 12,9 km/h (3 Bft)
13.06.2013 09:18 19,6 C 19,0 C 86 % 1013,7 hPa 0,0 l/m 0 min 0 min 0,0 UV-I 193 W/m 10,3 km/h (2 Bft)
13.06.2013 09:20 19,7 C 19,6 C 86 % 1013,7 hPa 0,0 l/m 0 min 0 min 0,0 UV-I 172 W/m 10,3 km/h (2 Bft)
13.06.2013 09:22 19,7 C 19,6 C 86 % 1013,7 hPa 0,0 l/m 0 min 0 min 0,6 UV-I 218 W/m 0,0 km/h (0 Bft)
13.06.2013 09:24 19,7 C 19,6 C 86 % 1013,7 hPa 0,0 l/m 0 min 0 min 0,6 UV-I 218 W/m 15,4 km/h (3 Bft)
13.06.2013 09:26 19,8 C 19,6 C 86 % 1013,7 hPa 0,0 l/m 0 min 0 min 0,6 UV-I 199 W/m 15,4 km/h (3 Bft)
13.06.2013 09:28 19,8 C 19,6 C 86 % 1013,6 hPa 0,0 l/m 0 min 0 min 0,6 UV-I 186 W/m 12,9 km/h (3 Bft)
13.06.2013 09:30 19,8 C 19,6 C 86 % 1013,7 hPa 0,0 l/m 0 min 0 min 0,0 UV-I 169 W/m 15,4 km/h (3 Bft)
13.06.2013 09:32 19,9 C 19,6 C 86 % 1013,6 hPa 0,0 l/m 0 min 2 min 0,0 UV-I 165 W/m 7,7 km/h (2 Bft)
13.06.2013 09:34 19,9 C 19,6 C 86 % 1013,7 hPa 0,0 l/m 0 min 0 min 0,0 UV-I 169 W/m 10,3 km/h (2 Bft)
13.06.2013 09:36 20,0 C 19,6 C 85 % 1013,7 hPa 0,0 l/m 0 min 0 min 0,5 UV-I 190 W/m 7,7 km/h (2 Bft)
13.06.2013 09:38 20,0 C 19,6 C 85 % 1013,7 hPa 0,0 l/m 0 min 0 min 0,0 UV-I 192 W/m 12,9 km/h (3 Bft)
13.06.2013 09:40 20,1 C 19,6 C 85 % 1013,5 hPa 0,0 l/m 0 min 0 min 0,0 UV-I 190 W/m 23,2 km/h (4 Bft)
13.06.2013 09:42 20,1 C 19,6 C 85 % 1013,5 hPa 0,0 l/m 0 min 0 min 0,0 UV-I 186 W/m 15,4 km/h (3 Bft)
13.06.2013 09:44 20,1 C 19,6 C 84 % 1013,5 hPa 0,0 l/m 0 min 0 min 0,5 UV-I 211 W/m 12,9 km/h (3 Bft)
13.06.2013 09:46 20,1 C 19,6 C 84 % 1013,5 hPa 0,0 l/m 0 min 0 min 0,7 UV-I 229 W/m 18,0 km/h (3 Bft)
13.06.2013 09:48 20,1 C 19,6 C 84 % 1013,5 hPa 0,0 l/m 0 min 0 min 0,8 UV-I 237 W/m 7,7 km/h (2 Bft)
13.06.2013 09:50 20,2 C 20,1 C 85 % 1013,4 hPa 0,0 l/m 0 min 0 min 0,9 UV-I 251 W/m 7,7 km/h (2 Bft)
13.06.2013 09:52 20,2 C 20,1 C 85 % 1013,5 hPa 0,0 l/m 0 min 0 min 0,9 UV-I 255 W/m 12,9 km/h (3 Bft)
13.06.2013 09:54 20,3 C 20,1 C 85 % 1013,5 hPa 0,0 l/m 0 min 0 min 0,9 UV-I 262 W/m 0,0 km/h (0 Bft)
13.06.2013 09:56 20,3 C 20,7 C 85 % 1013,4 hPa 0,0 l/m 0 min 0 min 1,0 UV-I 274 W/m 10,3 km/h (2 Bft)
13.06.2013 09:58 20,3 C 20,7 C 85 % 1013,4 hPa 0,0 l/m 0 min 0 min 1,2 UV-I 316 W/m 25,7 km/h (4 Bft)
13.06.2013 10:00 20,4 C 20,7 C 84 % 1013,3 hPa 0,0 l/m 0 min 0 min 1,3 UV-I 316 W/m 12,9 km/h (3 Bft)
13.06.2013 10:02 20,6 C 21,2 C 84 % 1013,3 hPa 0,0 l/m 0 min 0 min 1,4 UV-I 336 W/m 10,3 km/h (2 Bft)
13.06.2013 10:04 20,7 C 21,2 C 84 % 1013,2 hPa 0,0 l/m 2 min 0 min 1,6 UV-I 381 W/m 10,3 km/h (2 Bft)
13.06.2013 10:06 20,7 C 21,8 C 83 % 1013,2 hPa 0,0 l/m 0 min 0 min 1,6 UV-I 355 W/m 10,3 km/h (2 Bft)
13.06.2013 10:08 20,8 C 21,8 C 84 % 1013,2 hPa 0,0 l/m 2 min 0 min 1,6 UV-I 362 W/m 0,0 km/h (0 Bft)
13.06.2013 10:10 20,9 C 21,8 C 84 % 1013,1 hPa 0,0 l/m 0 min 0 min 1,7 UV-I 341 W/m 10,3 km/h (2 Bft)
13.06.2013 10:12 21,0 C 21,8 C 83 % 1013,2 hPa 0,0 l/m 0 min 0 min 1,7 UV-I 345 W/m 15,4 km/h (3 Bft)
13.06.2013 10:14 21,1 C 22,3 C 83 % 1013,0 hPa 0,0 l/m 2 min 0 min 2,0 UV-I 457 W/m 10,3 km/h (2 Bft)
13.06.2013 10:16 21,2 C 22,9 C 83 % 1013,1 hPa 0,0 l/m 2 min 0 min 1,9 UV-I 385 W/m 18,0 km/h (3 Bft)
13.06.2013 10:18 21,3 C 22,9 C 82 % 1013,0 hPa 0,0 l/m 2 min 0 min 2,1 UV-I 422 W/m 12,9 km/h (3 Bft)
13.06.2013 10:20 21,4 C 23,4 C 82 % 1013,1 hPa 0,0 l/m 2 min 0 min 2,3 UV-I 497 W/m 7,7 km/h (2 Bft)
13.06.2013 10:22 21,5 C 24,0 C 81 % 1013,0 hPa 0,0 l/m 2 min 0 min 2,6 UV-I 522 W/m 20,6 km/h (4 Bft)
13.06.2013 10:24 21,6 C 24,0 C 80 % 1013,0 hPa 0,0 l/m 2 min 0 min 1,9 UV-I 571 W/m 12,9 km/h (3 Bft)
13.06.2013 10:26 21,6 C 24,0 C 80 % 1012,9 hPa 0,0 l/m 2 min 0 min 2,1 UV-I 441 W/m 15,4 km/h (3 Bft)
13.06.2013 10:28 21,8 C 25,1 C 80 % 1012,9 hPa 0,0 l/m 2 min 0 min 2,9 UV-I 631 W/m 12,9 km/h (3 Bft)
13.06.2013 10:30 21,9 C 25,7 C 79 % 1013,0 hPa 0,0 l/m 2 min 0 min 3,1 UV-I 756 W/m 15,4 km/h (3 Bft)
13.06.2013 10:32 21,9 C 24,6 C 79 % 1012,7 hPa 0,0 l/m 0 min 0 min 2,1 UV-I 323 W/m 18,0 km/h (3 Bft)
13.06.2013 10:34 21,9 C 24,0 C 79 % 1012,7 hPa 0,0 l/m 0 min 0 min 2,1 UV-I 373 W/m 12,9 km/h (3 Bft)
13.06.2013 10:36 21,9 C 22,9 C 78 % 1012,5 hPa 0,0 l/m 0 min 0 min 2,0 UV-I 364 W/m 20,6 km/h (4 Bft)
13.06.2013 10:38 21,8 C 22,9 C 79 % 1012,5 hPa 0,0 l/m 0 min 0 min 2,0 UV-I 339 W/m 15,4 km/h (3 Bft)
13.06.2013 10:40 21,8 C 23,4 C 79 % 1012,5 hPa 0,0 l/m 2 min 0 min 2,3 UV-I 499 W/m 7,7 km/h (2 Bft)
13.06.2013 10:42 21,9 C 24,0 C 79 % 1012,5 hPa 0,0 l/m 2 min 0 min 2,9 UV-I 434 W/m 10,3 km/h (2 Bft)
13.06.2013 10:44 22,1 C 24,6 C 79 % 1012,5 hPa 0,0 l/m 2 min 0 min 3,0 UV-I 636 W/m 20,6 km/h (4 Bft)
13.06.2013 10:46 22,2 C 24,6 C 78 % 1012,4 hPa 0,0 l/m 2 min 0 min 3,5 UV-I 636 W/m 23,2 km/h (4 Bft)
13.06.2013 10:48 22,4 C 25,1 C 77 % 1012,4 hPa 0,0 l/m 2 min 0 min 3,3 UV-I 737 W/m 18,0 km/h (3 Bft)
13.06.2013 10:50 22,6 C 25,7 C 78 % 1012,3 hPa 0,0 l/m 2 min 0 min 2,4 UV-I 473 W/m 12,9 km/h (3 Bft)
13.06.2013 10:52 22,7 C 25,1 C 77 % 1012,4 hPa 0,0 l/m 2 min 0 min 2,3 UV-I 431 W/m 20,6 km/h (4 Bft)
13.06.2013 10:54 22,6 C 24,0 C 76 % 1012,4 hPa 0,0 l/m 2 min 0 min 2,2 UV-I 438 W/m 12,9 km/h (3 Bft)
13.06.2013 10:56 22,4 C 23,4 C 76 % 1012,5 hPa 0,0 l/m 0 min 0 min 1,9 UV-I 353 W/m 15,4 km/h (3 Bft)
13.06.2013 10:58 22,3 C 22,9 C 76 % 1012,4 hPa 0,0 l/m 0 min 0 min 1,8 UV-I 338 W/m 18,0 km/h (3 Bft)
13.06.2013 11:00 22,3 C 22,9 C 77 % 1012,5 hPa 0,0 l/m 0 min 0 min 1,5 UV-I 299 W/m 12,9 km/h (3 Bft)
13.06.2013 11:02 22,2 C 22,3 C 76 % 1012,5 hPa 0,0 l/m 0 min 0 min 1,6 UV-I 308 W/m 12,9 km/h (3 Bft)
13.06.2013 11:06 22,1 C 22,3 C 78 % 1012,5 hPa 0,0 l/m 0 min 0 min 1,7 UV-I 322 W/m 18,0 km/h (3 Bft)
13.06.2013 11:08 22,1 C 22,3 C 76 % 1012,6 hPa 0,0 l/m 0 min 0 min 1,6 UV-I 322 W/m 18,0 km/h (3 Bft)
13.06.2013 11:10 22,0 C 22,3 C 76 % 1012,6 hPa 0,0 l/m 0 min 0 min 1,7 UV-I 325 W/m 28,3 km/h (4 Bft)
13.06.2013 11:12 22,0 C 22,3 C 76 % 1012,6 hPa 0,0 l/m 0 min 0 min 1,6 UV-I 316 W/m 18,0 km/h (3 Bft)
13.06.2013 11:14 22,0 C 22,3 C 77 % 1012,6 hPa 0,0 l/m 0 min 0 min 1,3 UV-I 253 W/m 7,7 km/h (2 Bft)
13.06.2013 11:16 22,0 C 22,3 C 78 % 1012,7 hPa 0,0 l/m 0 min 0 min 1,5 UV-I 272 W/m 15,4 km/h (3 Bft)
13.06.2013 11:18 22,0 C 22,3 C 77 % 1012,6 hPa 0,0 l/m 0 min 0 min 1,7 UV-I 301 W/m 15,4 km/h (3 Bft)
13.06.2013 11:20 22,0 C 22,3 C 78 % 1012,6 hPa 0,0 l/m 0 min 0 min 2,1 UV-I 378 W/m 12,9 km/h (3 Bft)
13.06.2013 11:22 22,1 C 22,9 C 77 % 1012,7 hPa 0,0 l/m 0 min 0 min 2,1 UV-I 378 W/m 18,0 km/h (3 Bft)
13.06.2013 11:24 22,1 C 22,3 C 76 % 1012,6 hPa 0,0 l/m 0 min 0 min 2,3 UV-I 369 W/m 25,7 km/h (4 Bft)
13.06.2013 11:26 22,1 C 22,9 C 76 % 1012,5 hPa 0,0 l/m 0 min 0 min 2,4 UV-I 413 W/m 18,0 km/h (3 Bft)
13.06.2013 11:28 22,2 C 23,4 C 77 % 1012,5 hPa 0,0 l/m 2 min 0 min 2,4 UV-I 434 W/m 2,6 km/h (1 Bft)
13.06.2013 11:30 22,3 C 23,4 C 77 % 1012,5 hPa 0,0 l/m 0 min 0 min 2,1 UV-I 360 W/m 18,0 km/h (3 Bft)
13.06.2013 11:32 22,3 C 23,4 C 76 % 1012,5 hPa 0,0 l/m 0 min 0 min 2,5 UV-I 408 W/m 18,0 km/h (3 Bft)
13.06.2013 11:34 22,4 C 24,0 C 76 % 1012,4 hPa 0,0 l/m 2 min 0 min 3,2 UV-I 533 W/m 15,4 km/h (3 Bft)
13.06.2013 11:36 22,4 C 23,4 C 74 % 1012,7 hPa 0,0 l/m 2 min 0 min 2,9 UV-I 524 W/m 15,4 km/h (3 Bft)
13.06.2013 11:38 22,3 C 23,4 C 74 % 1012,5 hPa 0,0 l/m 0 min 0 min 2,2 UV-I 341 W/m 30,9 km/h (5 Bft)
13.06.2013 11:40 22,3 C 22,9 C 75 % 1012,5 hPa 0,0 l/m 0 min 0 min 2,2 UV-I 352 W/m 15,4 km/h (3 Bft)
13.06.2013 11:42 22,3 C 22,9 C 75 % 1012,5 hPa 0,0 l/m 0 min 0 min 2,5 UV-I 380 W/m 18,0 km/h (3 Bft)
13.06.2013 11:44 22,3 C 22,9 C 74 % 1012,5 hPa 0,0 l/m 0 min 0 min 2,7 UV-I 418 W/m 12,9 km/h (3 Bft)
13.06.2013 11:46 22,4 C 22,9 C 75 % 1012,5 hPa 0,0 l/m 0 min 0 min 3,1 UV-I 443 W/m 15,4 km/h (3 Bft)
13.06.2013 11:48 22,5 C 24,0 C 75 % 1012,5 hPa 0,0 l/m 2 min 0 min 3,2 UV-I 548 W/m 12,9 km/h (3 Bft)
13.06.2013 11:50 22,7 C 24,0 C 75 % 1012,4 hPa 0,0 l/m 0 min 0 min 2,7 UV-I 436 W/m 12,9 km/h (3 Bft)
13.06.2013 11:52 22,8 C 25,1 C 74 % 1012,3 hPa 0,0 l/m 2 min 0 min 3,1 UV-I 742 W/m 28,3 km/h (4 Bft)
13.06.2013 11:54 22,9 C 24,6 C 73 % 1012,3 hPa 0,0 l/m 0 min 0 min 2,5 UV-I 441 W/m 15,4 km/h (3 Bft)
13.06.2013 11:56 22,9 C 24,6 C 74 % 1012,3 hPa 0,0 l/m 2 min 0 min 3,2 UV-I 503 W/m 7,7 km/h (2 Bft)
13.06.2013 11:58 23,0 C 25,1 C 74 % 1012,2 hPa 0,0 l/m 2 min 0 min 2,7 UV-I 568 W/m 15,4 km/h (3 Bft)
13.06.2013 12:00 23,1 C 25,1 C 73 % 1012,2 hPa 0,0 l/m 0 min 0 min 2,3 UV-I 297 W/m 15,4 km/h (3 Bft)
13.06.2013 12:02 23,1 C 24,0 C 74 % 1012,3 hPa 0,0 l/m 0 min 0 min 1,3 UV-I 229 W/m 10,3 km/h (2 Bft)
13.06.2013 12:04 23,0 C 24,0 C 74 % 1012,2 hPa 0,0 l/m 0 min 0 min 1,3 UV-I 227 W/m 12,9 km/h (3 Bft)
13.06.2013 12:06 22,9 C 23,4 C 73 % 1012,3 hPa 0,0 l/m 0 min 0 min 2,3 UV-I 325 W/m 15,4 km/h (3 Bft)
13.06.2013 12:08 22,8 C 23,4 C 74 % 1012,2 hPa 0,0 l/m 0 min 0 min 1,9 UV-I 295 W/m 10,3 km/h (2 Bft)
13.06.2013 12:10 22,8 C 24,0 C 75 % 1012,3 hPa 0,0 l/m 0 min 0 min 3,1 UV-I 339 W/m 15,4 km/h (3 Bft)
13.06.2013 12:12 22,9 C 24,6 C 74 % 1012,2 hPa 0,0 l/m 0 min 0 min 3,4 UV-I 448 W/m 10,3 km/h (2 Bft)
13.06.2013 12:14 22,9 C 25,1 C 73 % 1012,2 hPa 0,0 l/m 2 min 0 min 3,2 UV-I 564 W/m 18,0 km/h (3 Bft)
13.06.2013 12:16 23,1 C 25,1 C 73 % 1012,2 hPa 0,0 l/m 0 min 0 min 2,6 UV-I 403 W/m 18,0 km/h (3 Bft)
13.06.2013 12:18 23,1 C 25,7 C 73 % 1012,3 hPa 0,0 l/m 0 min 0 min 3,7 UV-I 403 W/m 18,0 km/h (3 Bft)
13.06.2013 12:20 23,2 C 25,1 C 73 % 1012,4 hPa 0,0 l/m 0 min 0 min 2,6 UV-I 378 W/m 12,9 km/h (3 Bft)
13.06.2013 12:22 23,2 C 25,7 C 74 % 1012,2 hPa 0,0 l/m 0 min 0 min 3,9 UV-I 415 W/m 25,7 km/h (4 Bft)
13.06.2013 12:24 23,3 C 25,1 C 73 % 1012,2 hPa 0,0 l/m 0 min 0 min 2,4 UV-I 330 W/m 20,6 km/h (4 Bft)
13.06.2013 12:26 23,3 C 25,1 C 73 % 1012,2 hPa 0,0 l/m 0 min 0 min 3,4 UV-I 422 W/m 18,0 km/h (3 Bft)
13.06.2013 12:28 23,2 C 25,1 C 72 % 1012,1 hPa 0,0 l/m 0 min 0 min 2,8 UV-I 403 W/m 20,6 km/h (4 Bft)
13.06.2013 12:30 23,2 C 25,1 C 72 % 1012,1 hPa 0,0 l/m 2 min 0 min 3,2 UV-I 483 W/m 18,0 km/h (3 Bft)
13.06.2013 12:32 23,3 C 25,1 C 73 % 1012,1 hPa 0,0 l/m 2 min 0 min 2,4 UV-I 483 W/m 2,6 km/h (1 Bft)
13.06.2013 12:34 23,2 C 24,6 C 73 % 1012,1 hPa 0,0 l/m 0 min 0 min 1,9 UV-I 299 W/m 18,0 km/h (3 Bft)
13.06.2013 12:36 23,2 C 24,0 C 72 % 1012,2 hPa 0,0 l/m 0 min 0 min 1,8 UV-I 301 W/m 10,3 km/h (2 Bft)
13.06.2013 12:38 23,1 C 24,0 C 72 % 1012,0 hPa 0,0 l/m 0 min 0 min 3,1 UV-I 329 W/m 7,7 km/h (2 Bft)
13.06.2013 12:40 23,2 C 24,6 C 73 % 1012,1 hPa 0,0 l/m 2 min 0 min 2,8 UV-I 476 W/m 10,3 km/h (2 Bft)
13.06.2013 12:42 23,3 C 25,1 C 72 % 1012,1 hPa 0,0 l/m 0 min 0 min 2,0 UV-I 466 W/m 15,4 km/h (3 Bft)
13.06.2013 12:44 23,3 C 25,1 C 71 % 1012,1 hPa 0,0 l/m 2 min 0 min 3,6 UV-I 585 W/m 20,6 km/h (4 Bft)
13.06.2013 12:46 23,4 C 25,7 C 72 % 1012,1 hPa 0,0 l/m 2 min 0 min 3,3 UV-I 547 W/m 7,7 km/h (2 Bft)
13.06.2013 12:48 23,5 C 26,2 C 71 % 1012,1 hPa 0,0 l/m 2 min 0 min 4,8 UV-I 772 W/m 15,4 km/h (3 Bft)
13.06.2013 12:50 23,7 C 26,2 C 71 % 1012,0 hPa 0,0 l/m 2 min 0 min 4,5 UV-I 747 W/m 18,0 km/h (3 Bft)
13.06.2013 12:52 23,7 C 26,8 C 72 % 1012,0 hPa 0,0 l/m 2 min 0 min 3,3 UV-I 747 W/m 15,4 km/h (3 Bft)
13.06.2013 12:54 23,9 C 26,8 C 70 % 1011,9 hPa 0,0 l/m 2 min 0 min 3,9 UV-I 788 W/m 18,0 km/h (3 Bft)
13.06.2013 12:56 24,1 C 27,3 C 69 % 1011,9 hPa 0,0 l/m 2 min 0 min 3,9 UV-I 624 W/m 18,0 km/h (3 Bft)
13.06.2013 12:58 24,3 C 27,9 C 67 % 1011,8 hPa 0,0 l/m 2 min 0 min 4,5 UV-I 661 W/m 20,6 km/h (4 Bft)
13.06.2013 13:00 24,3 C 27,9 C 66 % 1011,9 hPa 0,0 l/m 2 min 0 min 3,7 UV-I 796 W/m 23,2 km/h (4 Bft)
13.06.2013 13:02 24,3 C 27,9 C 66 % 1011,9 hPa 0,0 l/m 2 min 0 min 2,9 UV-I 744 W/m 23,2 km/h (4 Bft)
13.06.2013 13:04 24,2 C 26,8 C 66 % 1011,8 hPa 0,0 l/m 0 min 0 min 3,1 UV-I 357 W/m 20,6 km/h (4 Bft)
13.06.2013 13:06 24,2 C 26,8 C 65 % 1011,9 hPa 0,0 l/m 2 min 0 min 3,3 UV-I 628 W/m 15,4 km/h (3 Bft)
13.06.2013 13:08 24,1 C 26,8 C 66 % 1011,8 hPa 0,0 l/m 2 min 0 min 3,3 UV-I 628 W/m 12,9 km/h (3 Bft)
13.06.2013 13:10 24,2 C 27,9 C 66 % 1011,9 hPa 0,0 l/m 2 min 0 min 3,4 UV-I 780 W/m 23,2 km/h (4 Bft)
13.06.2013 13:12 24,3 C 28,4 C 66 % 1011,8 hPa 0,0 l/m 2 min 0 min 3,3 UV-I 744 W/m 12,9 km/h (3 Bft)
13.06.2013 13:14 24,3 C 28,4 C 65 % 1011,8 hPa 0,0 l/m 2 min 0 min 3,3 UV-I 703 W/m 30,9 km/h (5 Bft)
13.06.2013 13:16 24,4 C 28,4 C 65 % 1011,7 hPa 0,0 l/m 2 min 0 min 3,3 UV-I 758 W/m 23,2 km/h (4 Bft)
13.06.2013 13:18 24,4 C 28,4 C 67 % 1011,6 hPa 0,0 l/m 2 min 0 min 3,3 UV-I 837 W/m 18,0 km/h (3 Bft)
13.06.2013 13:20 24,4 C 28,4 C 65 % 1011,6 hPa 0,0 l/m 2 min 0 min 3,2 UV-I 733 W/m 18,0 km/h (3 Bft)
13.06.2013 13:22 24,3 C 27,9 C 65 % 1011,7 hPa 0,0 l/m 2 min 0 min 3,2 UV-I 666 W/m 15,4 km/h (3 Bft)
13.06.2013 13:24 24,4 C 27,9 C 66 % 1011,6 hPa 0,0 l/m 2 min 0 min 2,9 UV-I 578 W/m 10,3 km/h (2 Bft)
13.06.2013 13:26 24,4 C 26,8 C 66 % 1011,6 hPa 0,0 l/m 0 min 0 min 3,0 UV-I 424 W/m 23,2 km/h (4 Bft)
13.06.2013 13:28 24,2 C 26,2 C 66 % 1011,6 hPa 0,0 l/m 0 min 0 min 3,1 UV-I 446 W/m 12,9 km/h (3 Bft)
13.06.2013 13:30 24,1 C 26,2 C 66 % 1011,6 hPa 0,0 l/m 2 min 0 min 3,4 UV-I 628 W/m 25,7 km/h (4 Bft)
13.06.2013 13:32 24,0 C 26,2 C 67 % 1011,7 hPa 0,0 l/m 2 min 0 min 3,3 UV-I 552 W/m 12,9 km/h (3 Bft)
13.06.2013 13:34 24,0 C 26,2 C 67 % 1011,6 hPa 0,0 l/m 2 min 0 min 3,4 UV-I 657 W/m 23,2 km/h (4 Bft)
13.06.2013 13:36 24,1 C 26,2 C 67 % 1011,6 hPa 0,0 l/m 2 min 0 min 3,3 UV-I 557 W/m 20,6 km/h (4 Bft)
13.06.2013 13:38 24,2 C 26,2 C 67 % 1011,5 hPa 0,0 l/m 2 min 0 min 3,2 UV-I 512 W/m 15,4 km/h (3 Bft)
13.06.2013 13:40 24,2 C 26,2 C 68 % 1011,5 hPa 0,0 l/m 0 min 0 min 3,2 UV-I 471 W/m 20,6 km/h (4 Bft)
13.06.2013 13:42 24,2 C 25,7 C 66 % 1011,6 hPa 0,0 l/m 0 min 0 min 3,1 UV-I 457 W/m 20,6 km/h (4 Bft)
13.06.2013 13:44 24,1 C 25,1 C 67 % 1011,6 hPa 0,0 l/m 0 min 0 min 3,1 UV-I 436 W/m 10,3 km/h (2 Bft)
13.06.2013 13:46 23,9 C 25,1 C 67 % 1011,5 hPa 0,0 l/m 0 min 0 min 3,1 UV-I 439 W/m 20,6 km/h (4 Bft)
13.06.2013 13:48 23,8 C 24,6 C 67 % 1011,6 hPa 0,0 l/m 0 min 0 min 3,1 UV-I 445 W/m 18,0 km/h (3 Bft)
13.06.2013 13:50 23,8 C 25,1 C 67 % 1011,5 hPa 0,0 l/m 2 min 0 min 3,7 UV-I 538 W/m 15,4 km/h (3 Bft)
13.06.2013 13:52 23,9 C 25,7 C 67 % 1011,7 hPa 0,0 l/m 2 min 0 min 4,1 UV-I 724 W/m 20,6 km/h (4 Bft)
13.06.2013 13:54 24,0 C 25,7 C 66 % 1011,5 hPa 0,0 l/m 2 min 0 min 3,7 UV-I 534 W/m 15,4 km/h (3 Bft)
13.06.2013 13:56 24,0 C 25,7 C 66 % 1011,4 hPa 0,0 l/m 2 min 0 min 3,7 UV-I 561 W/m 10,3 km/h (2 Bft)
13.06.2013 13:58 24,1 C 25,7 C 65 % 1011,4 hPa 0,0 l/m 2 min 0 min 3,5 UV-I 563 W/m 18,0 km/h (3 Bft)
13.06.2013 14:00 24,1 C 25,7 C 66 % 1011,4 hPa 0,0 l/m 2 min 0 min 3,4 UV-I 485 W/m 7,7 km/h (2 Bft)
13.06.2013 14:02 24,1 C 25,7 C 65 % 1011,5 hPa 0,0 l/m 0 min 0 min 3,0 UV-I 420 W/m 12,9 km/h (3 Bft)
13.06.2013 14:04 24,0 C 25,1 C 66 % 1011,4 hPa 0,0 l/m 0 min 0 min 2,7 UV-I 374 W/m 12,9 km/h (3 Bft)
13.06.2013 14:06 24,1 C 25,1 C 67 % 1011,4 hPa 0,0 l/m 0 min 0 min 2,6 UV-I 380 W/m 15,4 km/h (3 Bft)
13.06.2013 14:08 24,0 C 25,1 C 66 % 1011,5 hPa 0,0 l/m 0 min 0 min 2,6 UV-I 394 W/m 23,2 km/h (4 Bft)
13.06.2013 14:10 23,9 C 24,6 C 64 % 1011,5 hPa 0,0 l/m 0 min 0 min 2,5 UV-I 371 W/m 23,2 km/h (4 Bft)
13.06.2013 14:12 23,9 C 24,6 C 64 % 1011,6 hPa 0,0 l/m 0 min 0 min 2,2 UV-I 325 W/m 12,9 km/h (3 Bft)
13.06.2013 14:14 23,8 C 24,6 C 65 % 1011,6 hPa 0,0 l/m 0 min 0 min 1,9 UV-I 283 W/m 18,0 km/h (3 Bft)
13.06.2013 14:16 23,7 C 24,0 C 65 % 1011,6 hPa 0,0 l/m 0 min 0 min 1,5 UV-I 243 W/m 10,3 km/h (2 Bft)
13.06.2013 14:18 23,7 C 23,4 C 65 % 1011,7 hPa 0,0 l/m 0 min 0 min 1,4 UV-I 229 W/m 23,2 km/h (4 Bft)
13.06.2013 14:20 23,6 C 23,4 C 66 % 1011,6 hPa 0,0 l/m 0 min 0 min 1,4 UV-I 220 W/m 12,9 km/h (3 Bft)
13.06.2013 14:22 23,4 C 23,4 C 67 % 1011,6 hPa 0,0 l/m 0 min 0 min 1,3 UV-I 216 W/m 10,3 km/h (2 Bft)
13.06.2013 14:24 23,4 C 23,4 C 66 % 1011,6 hPa 0,0 l/m 0 min 0 min 1,2 UV-I 202 W/m 25,7 km/h (4 Bft)
13.06.2013 14:26 23,3 C 22,9 C 66 % 1011,6 hPa 0,0 l/m 0 min 0 min 0,9 UV-I 155 W/m 10,3 km/h (2 Bft)
13.06.2013 14:28 23,3 C 22,9 C 67 % 1011,7 hPa 0,0 l/m 0 min 0 min 0,8 UV-I 156 W/m 10,3 km/h (2 Bft)
13.06.2013 14:30 23,3 C 22,9 C 67 % 1011,7 hPa 0,0 l/m 0 min 0 min 0,8 UV-I 156 W/m 18,0 km/h (3 Bft)
13.06.2013 14:32 23,2 C 22,9 C 66 % 1011,9 hPa 0,0 l/m 0 min 0 min 0,6 UV-I 127 W/m 20,6 km/h (4 Bft)
13.06.2013 14:34 23,2 C 22,3 C 67 % 1011,8 hPa 0,0 l/m 0 min 0 min 0,0 UV-I 113 W/m 7,7 km/h (2 Bft)
13.06.2013 14:36 23,2 C 22,3 C 66 % 1011,8 hPa 0,0 l/m 0 min 0 min 0,7 UV-I 142 W/m 15,4 km/h (3 Bft)
13.06.2013 14:38 23,1 C 22,3 C 66 % 1012,0 hPa 0,0 l/m 0 min 0 min 0,9 UV-I 178 W/m 25,7 km/h (4 Bft)
13.06.2013 14:40 23,0 C 22,3 C 66 % 1011,9 hPa 0,0 l/m 0 min 0 min 1,1 UV-I 199 W/m 12,9 km/h (3 Bft)
13.06.2013 14:42 23,0 C 22,3 C 66 % 1011,9 hPa 0,0 l/m 0 min 0 min 1,0 UV-I 188 W/m 30,9 km/h (5 Bft)
13.06.2013 14:44 22,9 C 22,3 C 67 % 1011,9 hPa 0,0 l/m 0 min 0 min 1,1 UV-I 197 W/m 20,6 km/h (4 Bft)
13.06.2013 14:46 22,9 C 22,3 C 66 % 1011,8 hPa 0,0 l/m 0 min 0 min 1,3 UV-I 214 W/m 15,4 km/h (3 Bft)
13.06.2013 14:48 22,9 C 22,9 C 67 % 1011,9 hPa 0,0 l/m 0 min 0 min 1,3 UV-I 227 W/m 7,7 km/h (2 Bft)
13.06.2013 14:50 22,9 C 22,9 C 67 % 1011,9 hPa 0,0 l/m 0 min 0 min 1,4 UV-I 241 W/m 15,4 km/h (3 Bft)
13.06.2013 14:52 22,9 C 22,9 C 66 % 1011,9 hPa 0,0 l/m 0 min 0 min 1,2 UV-I 213 W/m 10,3 km/h (2 Bft)
13.06.2013 14:54 22,9 C 22,9 C 66 % 1011,9 hPa 0,0 l/m 0 min 0 min 0,9 UV-I 178 W/m 12,9 km/h (3 Bft)
13.06.2013 14:56 22,8 C 22,9 C 66 % 1011,9 hPa 0,0 l/m 0 min 0 min 0,8 UV-I 148 W/m 10,3 km/h (2 Bft)
13.06.2013 14:58 22,8 C 22,3 C 66 % 1011,9 hPa 0,0 l/m 0 min 0 min 0,6 UV-I 128 W/m 10,3 km/h (2 Bft)
13.06.2013 15:00 22,7 C 22,3 C 66 % 1012,0 hPa 0,0 l/m 0 min 0 min 0,0 UV-I 107 W/m 25,7 km/h (4 Bft)
13.06.2013 15:02 22,6 C 21,8 C 67 % 1012,0 hPa 0,0 l/m 0 min 0 min 0,0 UV-I 107 W/m 7,7 km/h (2 Bft)
13.06.2013 15:04 22,6 C 21,8 C 68 % 1011,9 hPa 0,0 l/m 0 min 2 min 0,0 UV-I 100 W/m 7,7 km/h (2 Bft)
13.06.2013 15:06 22,6 C 21,2 C 68 % 1012,0 hPa 0,0 l/m 0 min 2 min 0,0 UV-I 93 W/m 10,3 km/h (2 Bft)
13.06.2013 15:08 22,5 C 21,2 C 69 % 1012,1 hPa 0,0 l/m 0 min 2 min 0,0 UV-I 88 W/m 12,9 km/h (3 Bft)
13.06.2013 15:10 22,5 C 20,1 C 69 % 1012,0 hPa 0,0 l/m 0 min 2 min 0,0 UV-I 84 W/m 18,0 km/h (3 Bft)
13.06.2013 15:12 22,4 C 19,6 C 69 % 1012,1 hPa 0,0 l/m 0 min 2 min 0,0 UV-I 81 W/m 18,0 km/h (3 Bft)
13.06.2013 15:14 22,3 C 19,0 C 70 % 1012,2 hPa 0,0 l/m 0 min 2 min 0,0 UV-I 74 W/m 10,3 km/h (2 Bft)
13.06.2013 15:16 22,3 C 18,4 C 71 % 1012,3 hPa 0,0 l/m 0 min 2 min 0,0 UV-I 69 W/m 10,3 km/h (2 Bft)
13.06.2013 15:18 22,2 C 18,4 C 71 % 1012,3 hPa 0,0 l/m 0 min 2 min 0,0 UV-I 65 W/m 7,7 km/h (2 Bft)
13.06.2013 15:20 22,1 C 19,0 C 71 % 1012,3 hPa 0,0 l/m 0 min 2 min 0,0 UV-I 63 W/m 18,0 km/h (3 Bft)
13.06.2013 15:22 22,0 C 19,0 C 71 % 1012,3 hPa 0,0 l/m 0 min 2 min 0,0 UV-I 67 W/m 10,3 km/h (2 Bft)
13.06.2013 15:24 21,8 C 19,0 C 71 % 1012,4 hPa 0,0 l/m 0 min 2 min 0,0 UV-I 72 W/m 10,3 km/h (2 Bft)
13.06.2013 15:26 21,7 C 18,4 C 71 % 1012,4 hPa 0,0 l/m 0 min 2 min 0,0 UV-I 70 W/m 36,0 km/h (5 Bft)
13.06.2013 15:28 21,6 C 18,4 C 71 % 1012,4 hPa 0,0 l/m 0 min 2 min 0,0 UV-I 77 W/m 12,9 km/h (3 Bft)
13.06.2013 15:30 21,5 C 17,9 C 72 % 1012,5 hPa 0,0 l/m 0 min 2 min 0,0 UV-I 90 W/m 15,4 km/h (3 Bft)
13.06.2013 15:32 21,4 C 17,9 C 73 % 1012,5 hPa 0,0 l/m 0 min 2 min 0,0 UV-I 120 W/m 20,6 km/h (4 Bft)
13.06.2013 15:34 21,3 C 17,9 C 73 % 1012,6 hPa 0,0 l/m 0 min 2 min 0,0 UV-I 137 W/m 15,4 km/h (3 Bft)
13.06.2013 15:36 21,2 C 17,9 C 74 % 1012,6 hPa 0,2 l/m 0 min 2 min 0,0 UV-I 135 W/m 18,0 km/h (3 Bft)
13.06.2013 15:38 21,1 C 17,3 C 75 % 1012,6 hPa 0,0 l/m 0 min 2 min 0,0 UV-I 120 W/m 15,4 km/h (3 Bft)
13.06.2013 15:40 21,0 C 16,8 C 75 % 1012,7 hPa 0,0 l/m 0 min 2 min 0,0 UV-I 114 W/m 10,3 km/h (2 Bft)
13.06.2013 15:42 20,9 C 16,8 C 76 % 1012,7 hPa 0,0 l/m 0 min 2 min 0,0 UV-I 113 W/m 10,3 km/h (2 Bft)
13.06.2013 15:44 20,8 C 16,8 C 77 % 1012,7 hPa 0,0 l/m 0 min 2 min 0,0 UV-I 114 W/m 15,4 km/h (3 Bft)
13.06.2013 15:46 20,7 C 16,8 C 77 % 1012,8 hPa 0,0 l/m 0 min 2 min 0,0 UV-I 121 W/m 15,4 km/h (3 Bft)
13.06.2013 15:48 20,6 C 16,8 C 78 % 1012,8 hPa 0,0 l/m 0 min 2 min 0,0 UV-I 132 W/m 7,7 km/h (2 Bft)
13.06.2013 15:50 20,6 C 17,3 C 78 % 1012,9 hPa 0,0 l/m 0 min 2 min 0,5 UV-I 153 W/m 5,1 km/h (1 Bft)
13.06.2013 15:52 20,4 C 17,3 C 79 % 1012,9 hPa 0,0 l/m 0 min 2 min 0,5 UV-I 153 W/m 10,3 km/h (2 Bft)
13.06.2013 15:54 20,4 C 17,3 C 80 % 1013,0 hPa 0,0 l/m 0 min 2 min 0,0 UV-I 142 W/m 5,1 km/h (1 Bft)
13.06.2013 15:56 20,3 C 16,8 C 80 % 1013,1 hPa 0,2 l/m 0 min 2 min 0,5 UV-I 153 W/m 12,9 km/h (3 Bft)
13.06.2013 15:58 20,2 C 16,8 C 81 % 1013,2 hPa 0,0 l/m 0 min 2 min 0,6 UV-I 172 W/m 18,0 km/h (3 Bft)
13.06.2013 16:00 20,1 C 16,8 C 81 % 1013,2 hPa 0,0 l/m 0 min 2 min 0,7 UV-I 178 W/m 18,0 km/h (3 Bft)
13.06.2013 16:02 19,7 C 16,8 C 83 % 1013,3 hPa 0,0 l/m 0 min 2 min 0,5 UV-I 160 W/m 10,3 km/h (2 Bft)
13.06.2013 16:04 19,4 C 16,8 C 84 % 1013,3 hPa 0,2 l/m 0 min 2 min 0,0 UV-I 144 W/m 12,9 km/h (3 Bft)
13.06.2013 16:06 19,2 C 16,8 C 86 % 1013,3 hPa 0,0 l/m 0 min 2 min 0,0 UV-I 116 W/m 5,1 km/h (1 Bft)
13.06.2013 16:08 18,9 C 16,2 C 86 % 1013,3 hPa 0,0 l/m 0 min 2 min 0,0 UV-I 91 W/m 10,3 km/h (2 Bft)
13.06.2013 16:10 18,8 C 16,2 C 87 % 1013,2 hPa 0,0 l/m 0 min 2 min 0,0 UV-I 88 W/m 12,9 km/h (3 Bft)
13.06.2013 16:12 18,8 C 16,2 C 87 % 1013,3 hPa 0,0 l/m 0 min 2 min 0,0 UV-I 72 W/m 7,7 km/h (2 Bft)
13.06.2013 16:14 18,7 C 16,2 C 87 % 1013,3 hPa 0,0 l/m 0 min 2 min 0,0 UV-I 58 W/m 10,3 km/h (2 Bft)
13.06.2013 16:16 18,7 C 16,2 C 87 % 1013,3 hPa 0,0 l/m 0 min 2 min 0,0 UV-I 62 W/m 12,9 km/h (3 Bft)
13.06.2013 16:18 18,6 C 15,7 C 87 % 1013,3 hPa 0,2 l/m 0 min 2 min 0,0 UV-I 98 W/m 10,3 km/h (2 Bft)
13.06.2013 16:20 18,6 C 16,2 C 87 % 1013,2 hPa 0,0 l/m 0 min 2 min 0,0 UV-I 118 W/m 0,0 km/h (0 Bft)
13.06.2013 16:22 18,5 C 16,2 C 87 % 1013,2 hPa 0,0 l/m 0 min 2 min 0,0 UV-I 121 W/m 2,6 km/h (1 Bft)
13.06.2013 16:24 18,4 C 15,7 C 87 % 1013,1 hPa 0,0 l/m 0 min 2 min 0,0 UV-I 114 W/m 10,3 km/h (2 Bft)
13.06.2013 16:26 18,4 C 15,7 C 87 % 1013,1 hPa 0,0 l/m 0 min 2 min 0,0 UV-I 105 W/m 12,9 km/h (3 Bft)
13.06.2013 16:28 18,3 C 15,7 C 87 % 1013,1 hPa 0,0 l/m 0 min 2 min 0,0 UV-I 104 W/m 7,7 km/h (2 Bft)
13.06.2013 16:30 18,3 C 16,2 C 87 % 1013,1 hPa 0,0 l/m 0 min 2 min 0,0 UV-I 111 W/m 2,6 km/h (1 Bft)
13.06.2013 16:32 18,3 C 15,7 C 88 % 1013,2 hPa 0,0 l/m 0 min 2 min 0,0 UV-I 113 W/m 10,3 km/h (2 Bft)
13.06.2013 16:34 18,2 C 15,7 C 87 % 1013,1 hPa 0,0 l/m 0 min 2 min 0,0 UV-I 118 W/m 12,9 km/h (3 Bft)
13.06.2013 16:36 18,1 C 15,7 C 87 % 1013,3 hPa 0,0 l/m 0 min 2 min 0,0 UV-I 125 W/m 18,0 km/h (3 Bft)
13.06.2013 16:38 18,0 C 15,7 C 87 % 1013,2 hPa 0,0 l/m 0 min 2 min 0,0 UV-I 114 W/m 15,4 km/h (3 Bft)
13.06.2013 16:40 17,9 C 15,1 C 87 % 1013,2 hPa 0,0 l/m 0 min 2 min 0,0 UV-I 105 W/m 10,3 km/h (2 Bft)
13.06.2013 16:42 17,8 C 15,1 C 87 % 1013,2 hPa 0,0 l/m 0 min 2 min 0,0 UV-I 109 W/m 18,0 km/h (3 Bft)
13.06.2013 16:44 17,7 C 15,1 C 86 % 1013,3 hPa 0,0 l/m 0 min 2 min 0,0 UV-I 116 W/m 23,2 km/h (4 Bft)
13.06.2013 16:46 17,6 C 15,1 C 86 % 1013,3 hPa 0,0 l/m 0 min 2 min 0,0 UV-I 121 W/m 15,4 km/h (3 Bft)
13.06.2013 16:48 17,6 C 15,1 C 86 % 1013,4 hPa 0,0 l/m 0 min 2 min 0,0 UV-I 120 W/m 15,4 km/h (3 Bft)
13.06.2013 16:50 17,4 C 14,6 C 86 % 1013,5 hPa 0,0 l/m 0 min 2 min 0,0 UV-I 111 W/m 25,7 km/h (4 Bft)
13.06.2013 16:52 17,4 C 14,6 C 86 % 1013,4 hPa 0,2 l/m 0 min 2 min 0,0 UV-I 98 W/m 18,0 km/h (3 Bft)
13.06.2013 16:54 17,3 C 14,6 C 86 % 1013,4 hPa 0,0 l/m 0 min 2 min 0,0 UV-I 77 W/m 12,9 km/h (3 Bft)
13.06.2013 16:56 17,2 C 14,6 C 86 % 1013,5 hPa 0,0 l/m 0 min 2 min 0,0 UV-I 70 W/m 10,3 km/h (2 Bft)
13.06.2013 16:58 17,2 C 14,6 C 86 % 1013,4 hPa 0,0 l/m 0 min 2 min 0,0 UV-I 69 W/m 18,0 km/h (3 Bft)
13.06.2013 17:00 17,1 C 14,6 C 86 % 1013,5 hPa 0,0 l/m 0 min 2 min 0,0 UV-I 67 W/m 7,7 km/h (2 Bft)
13.06.2013 17:02 17,0 C 14,6 C 86 % 1013,4 hPa 0,0 l/m 0 min 2 min 0,0 UV-I 65 W/m 12,9 km/h (3 Bft)
13.06.2013 17:04 16,9 C 14,6 C 87 % 1013,4 hPa 0,0 l/m 0 min 2 min 0,0 UV-I 65 W/m 10,3 km/h (2 Bft)
13.06.2013 17:06 16,9 C 14,6 C 87 % 1013,2 hPa 0,2 l/m 0 min 2 min 0,0 UV-I 70 W/m 5,1 km/h (1 Bft)
13.06.2013 17:08 16,9 C 14,6 C 87 % 1013,3 hPa 0,0 l/m 0 min 2 min 0,0 UV-I 63 W/m 5,1 km/h (1 Bft)
13.06.2013 17:10 16,8 C 14,6 C 87 % 1013,3 hPa 0,0 l/m 0 min 2 min 0,0 UV-I 58 W/m 2,6 km/h (1 Bft)
13.06.2013 17:12 16,8 C 14,6 C 88 % 1013,3 hPa 0,0 l/m 0 min 2 min 0,0 UV-I 49 W/m 5,1 km/h (1 Bft)
13.06.2013 17:14 16,8 C 14,6 C 88 % 1013,3 hPa 0,0 l/m 0 min 2 min 0,0 UV-I 47 W/m 12,9 km/h (3 Bft)
13.06.2013 17:16 16,7 C 14,6 C 88 % 1013,3 hPa 0,0 l/m 0 min 0 min 0,0 UV-I 42 W/m 2,6 km/h (1 Bft)
13.06.2013 17:18 16,7 C 14,6 C 88 % 1013,3 hPa 0,0 l/m 0 min 0 min 0,0 UV-I 39 W/m 7,7 km/h (2 Bft)
13.06.2013 17:20 16,7 C 14,6 C 89 % 1013,4 hPa 0,0 l/m 0 min 0 min 0,0 UV-I 37 W/m 7,7 km/h (2 Bft)
13.06.2013 17:22 16,7 C 14,6 C 89 % 1013,4 hPa 0,0 l/m 0 min 0 min 0,0 UV-I 39 W/m 5,1 km/h (1 Bft)
13.06.2013 17:24 16,6 C 14,6 C 89 % 1013,4 hPa 0,0 l/m 0 min 0 min 0,0 UV-I 33 W/m 18,0 km/h (3 Bft)
13.06.2013 17:26 16,6 C 14,6 C 89 % 1013,4 hPa 0,0 l/m 0 min 0 min 0,0 UV-I 23 W/m 0,0 km/h (0 Bft)
13.06.2013 17:28 16,6 C 14,6 C 89 % 1013,4 hPa 0,0 l/m 0 min 2 min 0,0 UV-I 19 W/m 0,0 km/h (0 Bft)
13.06.2013 17:30 16,5 C 14,6 C 89 % 1013,4 hPa 0,0 l/m 0 min 2 min 0,0 UV-I 18 W/m 10,3 km/h (2 Bft)
13.06.2013 17:32 16,5 C 14,6 C 90 % 1013,5 hPa 0,0 l/m 0 min 0 min 0,0 UV-I 18 W/m 12,9 km/h (3 Bft)
13.06.2013 17:34 16,4 C 14,6 C 90 % 1013,6 hPa 0,0 l/m 0 min 0 min 0,0 UV-I 14 W/m 7,7 km/h (2 Bft)
13.06.2013 17:36 16,4 C 14,6 C 90 % 1013,6 hPa 0,0 l/m 0 min 0 min 0,0 UV-I 18 W/m 5,1 km/h (1 Bft)
13.06.2013 17:38 16,4 C 14,6 C 90 % 1013,5 hPa 0,0 l/m 0 min 0 min 0,0 UV-I 16 W/m 12,9 km/h (3 Bft)
13.06.2013 17:40 16,4 C 14,6 C 90 % 1013,4 hPa 0,0 l/m 0 min 2 min 0,0 UV-I 14 W/m 2,6 km/h (1 Bft)
13.06.2013 17:42 16,3 C 14,6 C 90 % 1013,3 hPa 0,0 l/m 0 min 2 min 0,0 UV-I 12 W/m 0,0 km/h (0 Bft)
13.06.2013 17:44 16,3 C 14,6 C 90 % 1013,3 hPa 0,0 l/m 0 min 2 min 0,0 UV-I 14 W/m 0,0 km/h (0 Bft)
13.06.2013 17:46 16,3 C 14,6 C 90 % 1013,4 hPa 0,0 l/m 0 min 0 min 0,0 UV-I 12 W/m 18,0 km/h (3 Bft)
13.06.2013 17:48 16,3 C 14,0 C 90 % 1013,5 hPa 0,0 l/m 0 min 2 min 0,0 UV-I 11 W/m 15,4 km/h (3 Bft)
13.06.2013 17:50 16,2 C 14,0 C 90 % 1013,5 hPa 0,0 l/m 0 min 2 min 0,0 UV-I 12 W/m 12,9 km/h (3 Bft)
13.06.2013 17:52 16,2 C 14,0 C 90 % 1013,6 hPa 0,0 l/m 0 min 2 min 0,0 UV-I 16 W/m 18,0 km/h (3 Bft)
13.06.2013 17:54 16,2 C 14,0 C 90 % 1013,6 hPa 0,0 l/m 0 min 2 min 0,0 UV-I 16 W/m 10,3 km/h (2 Bft)
13.06.2013 17:56 16,1 C 14,0 C 90 % 1013,7 hPa 0,0 l/m 0 min 2 min 0,0 UV-I 12 W/m 12,9 km/h (3 Bft)
13.06.2013 17:58 16,1 C 14,0 C 91 % 1013,7 hPa 0,0 l/m 0 min 2 min 0,0 UV-I 12 W/m 7,7 km/h (2 Bft)
13.06.2013 18:00 16,1 C 14,0 C 91 % 1013,8 hPa 0,2 l/m 0 min 2 min 0,0 UV-I 19 W/m 10,3 km/h (2 Bft)
13.06.2013 18:02 16,0 C 14,0 C 91 % 1013,7 hPa 0,0 l/m 0 min 2 min 0,0 UV-I 25 W/m 15,4 km/h (3 Bft)
13.06.2013 18:04 15,9 C 14,0 C 91 % 1013,9 hPa 0,0 l/m 0 min 2 min 0,0 UV-I 28 W/m 5,1 km/h (1 Bft)
13.06.2013 18:06 15,8 C 13,4 C 91 % 1013,9 hPa 0,2 l/m 0 min 2 min 0,0 UV-I 26 W/m 18,0 km/h (3 Bft)
13.06.2013 18:08 15,7 C 13,4 C 91 % 1013,9 hPa 0,0 l/m 0 min 2 min 0,0 UV-I 35 W/m 25,7 km/h (4 Bft)
13.06.2013 18:10 15,6 C 13,4 C 90 % 1014,1 hPa 0,2 l/m 0 min 2 min 0,0 UV-I 30 W/m 15,4 km/h (3 Bft)
13.06.2013 18:12 15,4 C 13,4 C 90 % 1014,1 hPa 0,0 l/m 0 min 2 min 0,0 UV-I 28 W/m 10,3 km/h (2 Bft)
13.06.2013 18:14 15,4 C 13,4 C 90 % 1014,0 hPa 0,2 l/m 0 min 2 min 0,0 UV-I 40 W/m 18,0 km/h (3 Bft)
13.06.2013 18:16 15,3 C 13,4 C 91 % 1014,0 hPa 0,0 l/m 0 min 2 min 0,0 UV-I 39 W/m 7,7 km/h (2 Bft)
13.06.2013 18:18 15,2 C 13,4 C 91 % 1013,9 hPa 0,0 l/m 0 min 2 min 0,0 UV-I 44 W/m 10,3 km/h (2 Bft)
13.06.2013 18:20 15,2 C 13,4 C 91 % 1013,9 hPa 0,2 l/m 0 min 2 min 0,0 UV-I 42 W/m 15,4 km/h (3 Bft)
13.06.2013 18:22 15,2 C 13,4 C 91 % 1013,9 hPa 0,0 l/m 0 min 2 min 0,0 UV-I 42 W/m 10,3 km/h (2 Bft)
13.06.2013 18:24 15,1 C 13,4 C 91 % 1013,9 hPa 0,2 l/m 0 min 2 min 0,0 UV-I 40 W/m 10,3 km/h (2 Bft)
13.06.2013 18:26 15,1 C 12,9 C 91 % 1014,2 hPa 0,0 l/m 0 min 2 min 0,0 UV-I 35 W/m 18,0 km/h (3 Bft)
13.06.2013 18:28 14,9 C 12,9 C 91 % 1014,2 hPa 0,0 l/m 0 min 2 min 0,0 UV-I 35 W/m 5,1 km/h (1 Bft)
13.06.2013 18:30 14,9 C 12,9 C 91 % 1014,1 hPa 0,2 l/m 0 min 2 min 0,0 UV-I 39 W/m 12,9 km/h (3 Bft)
13.06.2013 18:32 14,8 C 12,9 C 91 % 1014,1 hPa 0,0 l/m 0 min 2 min 0,0 UV-I 35 W/m 10,3 km/h (2 Bft)
13.06.2013 18:34 14,7 C 12,9 C 91 % 1014,2 hPa 0,0 l/m 0 min 2 min 0,0 UV-I 28 W/m 10,3 km/h (2 Bft)
13.06.2013 18:36 14,6 C 12,9 C 92 % 1014,2 hPa 0,0 l/m 0 min 2 min 0,0 UV-I 26 W/m 12,9 km/h (3 Bft)
13.06.2013 18:38 14,6 C 12,9 C 92 % 1014,4 hPa 0,2 l/m 0 min 2 min 0,0 UV-I 28 W/m 12,9 km/h (3 Bft)
13.06.2013 18:40 14,5 C 12,9 C 92 % 1014,3 hPa 0,0 l/m 0 min 2 min 0,0 UV-I 42 W/m 12,9 km/h (3 Bft)
13.06.2013 18:42 14,4 C 12,9 C 92 % 1014,4 hPa 0,0 l/m 0 min 2 min 0,0 UV-I 47 W/m 2,6 km/h (1 Bft)
13.06.2013 18:44 14,4 C 12,9 C 92 % 1014,3 hPa 0,0 l/m 0 min 2 min 0,0 UV-I 51 W/m 15,4 km/h (3 Bft)
13.06.2013 18:46 14,3 C 12,9 C 92 % 1014,3 hPa 0,0 l/m 0 min 2 min 0,0 UV-I 53 W/m 7,7 km/h (2 Bft)
13.06.2013 18:48 14,3 C 12,9 C 92 % 1014,2 hPa 0,0 l/m 0 min 2 min 0,0 UV-I 51 W/m 12,9 km/h (3 Bft)
13.06.2013 18:50 14,2 C 12,9 C 92 % 1014,1 hPa 0,2 l/m 0 min 2 min 0,0 UV-I 44 W/m 18,0 km/h (3 Bft)
13.06.2013 18:52 14,2 C 12,9 C 93 % 1014,2 hPa 0,0 l/m 0 min 2 min 0,0 UV-I 26 W/m 10,3 km/h (2 Bft)
13.06.2013 18:54 14,2 C 12,9 C 93 % 1014,2 hPa 0,0 l/m 0 min 2 min 0,0 UV-I 16 W/m 2,6 km/h (1 Bft)
13.06.2013 18:56 14,1 C 12,9 C 93 % 1014,3 hPa 0,0 l/m 0 min 2 min 0,0 UV-I 14 W/m 0,0 km/h (0 Bft)
13.06.2013 18:58 14,1 C 12,9 C 93 % 1014,3 hPa 0,2 l/m 0 min 2 min 0,0 UV-I 14 W/m 7,7 km/h (2 Bft)
13.06.2013 19:00 14,1 C 12,9 C 93 % 1014,3 hPa 0,0 l/m 0 min 2 min 0,0 UV-I 16 W/m 2,6 km/h (1 Bft)
13.06.2013 19:02 14,0 C 12,3 C 93 % 1014,4 hPa 0,0 l/m 0 min 2 min 0,0 UV-I 19 W/m 10,3 km/h (2 Bft)
13.06.2013 19:04 14,0 C 12,3 C 93 % 1014,4 hPa 0,0 l/m 0 min 2 min 0,0 UV-I 25 W/m 7,7 km/h (2 Bft)
13.06.2013 19:06 14,0 C 12,9 C 93 % 1014,5 hPa 0,0 l/m 0 min 2 min 0,0 UV-I 25 W/m 10,3 km/h (2 Bft)
13.06.2013 19:08 14,0 C 12,3 C 93 % 1014,5 hPa 0,2 l/m 0 min 2 min 0,0 UV-I 12 W/m 10,3 km/h (2 Bft)
13.06.2013 19:10 13,9 C 12,3 C 93 % 1014,5 hPa 0,0 l/m 0 min 2 min 0,0 UV-I 11 W/m 12,9 km/h (3 Bft)
13.06.2013 19:12 13,8 C 12,3 C 93 % 1014,5 hPa 0,0 l/m 0 min 2 min 0,0 UV-I 9 W/m 15,4 km/h (3 Bft)
13.06.2013 19:14 13,8 C 11,8 C 93 % 1014,5 hPa 0,2 l/m 0 min 2 min 0,0 UV-I 11 W/m 23,2 km/h (4 Bft)
13.06.2013 19:16 13,7 C 11,8 C 93 % 1014,6 hPa 0,0 l/m 0 min 2 min 0,0 UV-I 11 W/m 15,4 km/h (3 Bft)
13.06.2013 19:18 13,6 C 11,8 C 93 % 1014,6 hPa 0,0 l/m 0 min 2 min 0,0 UV-I 18 W/m 12,9 km/h (3 Bft)
13.06.2013 19:20 13,4 C 11,8 C 93 % 1014,5 hPa 0,0 l/m 0 min 2 min 0,0 UV-I 19 W/m 15,4 km/h (3 Bft)
13.06.2013 19:22 13,4 C 11,8 C 93 % 1014,6 hPa 0,2 l/m 0 min 2 min 0,0 UV-I 21 W/m 18,0 km/h (3 Bft)
13.06.2013 19:24 13,3 C 11,8 C 93 % 1014,5 hPa 0,0 l/m 0 min 2 min 0,0 UV-I 19 W/m 7,7 km/h (2 Bft)
13.06.2013 19:26 13,3 C 11,8 C 93 % 1014,5 hPa 0,0 l/m 0 min 2 min 0,0 UV-I 19 W/m 5,1 km/h (1 Bft)
13.06.2013 19:28 13,2 C 11,8 C 93 % 1014,6 hPa 0,2 l/m 0 min 2 min 0,0 UV-I 18 W/m 10,3 km/h (2 Bft)
13.06.2013 19:30 13,2 C 11,8 C 93 % 1014,8 hPa 0,0 l/m 0 min 2 min 0,0 UV-I 19 W/m 10,3 km/h (2 Bft)
13.06.2013 19:32 13,2 C 11,8 C 93 % 1014,8 hPa 0,0 l/m 0 min 2 min 0,0 UV-I 16 W/m 5,1 km/h (1 Bft)
13.06.2013 19:34 13,2 C 11,8 C 93 % 1014,8 hPa 0,0 l/m 0 min 2 min 0,0 UV-I 16 W/m 2,6 km/h (1 Bft)
13.06.2013 19:36 13,1 C 11,8 C 93 % 1014,8 hPa 0,2 l/m 0 min 2 min 0,0 UV-I 14 W/m 0,0 km/h (0 Bft)
13.06.2013 19:38 13,1 C 11,8 C 93 % 1014,8 hPa 0,0 l/m 0 min 2 min 0,0 UV-I 14 W/m 0,0 km/h (0 Bft)
13.06.2013 19:40 13,1 C 11,8 C 93 % 1014,9 hPa 0,0 l/m 0 min 2 min 0,0 UV-I 14 W/m 7,7 km/h (2 Bft)
13.06.2013 19:42 13,0 C 11,8 C 94 % 1014,9 hPa 0,2 l/m 0 min 2 min 0,0 UV-I 14 W/m 0,0 km/h (0 Bft)
13.06.2013 19:44 12,9 C 11,2 C 94 % 1014,9 hPa 0,0 l/m 0 min 2 min 0,0 UV-I 12 W/m 7,7 km/h (2 Bft)
13.06.2013 19:46 12,9 C 11,2 C 94 % 1014,9 hPa 0,0 l/m 0 min 2 min 0,0 UV-I 12 W/m 12,9 km/h (3 Bft)
13.06.2013 19:48 12,8 C 11,2 C 94 % 1014,9 hPa 0,0 l/m 0 min 2 min 0,0 UV-I 12 W/m 7,7 km/h (2 Bft)
13.06.2013 19:50 12,8 C 11,2 C 96 % 1014,9 hPa 0,2 l/m 0 min 2 min 0,0 UV-I 12 W/m 0,0 km/h (0 Bft)
13.06.2013 19:52 12,8 C 11,2 C 94 % 1014,8 hPa 0,0 l/m 0 min 2 min 0,0 UV-I 11 W/m 0,0 km/h (0 Bft)
13.06.2013 19:54 12,7 C 11,2 C 94 % 1014,9 hPa 0,0 l/m 0 min 2 min 0,0 UV-I 9 W/m 18,0 km/h (3 Bft)
13.06.2013 19:56 12,7 C 11,2 C 94 % 1014,9 hPa 0,0 l/m 0 min 2 min 0,0 UV-I 11 W/m 15,4 km/h (3 Bft)
13.06.2013 19:58 12,7 C 11,2 C 94 % 1014,9 hPa 0,2 l/m 0 min 2 min 0,0 UV-I 12 W/m 5,1 km/h (1 Bft)
13.06.2013 20:00 12,7 C 11,2 C 94 % 1014,9 hPa 0,0 l/m 0 min 2 min 0,0 UV-I 12 W/m 2,6 km/h (1 Bft)
13.06.2013 20:02 12,6 C 11,2 C 94 % 1014,9 hPa 0,0 l/m 0 min 2 min 0,0 UV-I 12 W/m 15,4 km/h (3 Bft)
13.06.2013 20:04 12,6 C 11,2 C 94 % 1014,9 hPa 0,2 l/m 0 min 2 min 0,0 UV-I 12 W/m 10,3 km/h (2 Bft)
13.06.2013 20:06 12,6 C 11,2 C 94 % 1014,8 hPa 0,0 l/m 0 min 2 min 0,0 UV-I 12 W/m 15,4 km/h (3 Bft)
13.06.2013 20:08 12,6 C 11,2 C 94 % 1014,8 hPa 0,0 l/m 0 min 2 min 0,0 UV-I 14 W/m 0,0 km/h (0 Bft)
13.06.2013 20:10 12,6 C 11,2 C 94 % 1014,8 hPa 0,2 l/m 0 min 2 min 0,0 UV-I 14 W/m 2,6 km/h (1 Bft)
13.06.2013 20:12 12,6 C 11,2 C 94 % 1014,7 hPa 0,0 l/m 0 min 2 min 0,0 UV-I 12 W/m 10,3 km/h (2 Bft)
13.06.2013 20:14 12,5 C 11,2 C 94 % 1014,6 hPa 0,0 l/m 0 min 0 min 0,0 UV-I 12 W/m 0,0 km/h (0 Bft)
13.06.2013 20:16 12,5 C 11,2 C 94 % 1014,7 hPa 0,0 l/m 0 min 2 min 0,0 UV-I 11 W/m 7,7 km/h (2 Bft)
13.06.2013 20:18 12,5 C 11,2 C 94 % 1014,8 hPa 0,2 l/m 0 min 2 min 0,0 UV-I 12 W/m 5,1 km/h (1 Bft)
13.06.2013 20:20 12,4 C 11,2 C 94 % 1014,7 hPa 0,0 l/m 0 min 0 min 0,0 UV-I 12 W/m 7,7 km/h (2 Bft)
13.06.2013 20:22 12,4 C 11,2 C 94 % 1014,7 hPa 0,0 l/m 0 min 0 min 0,0 UV-I 12 W/m 0,0 km/h (0 Bft)
13.06.2013 20:24 12,4 C 11,2 C 94 % 1014,7 hPa 0,2 l/m 0 min 0 min 0,0 UV-I 16 W/m 0,0 km/h (0 Bft)
13.06.2013 20:26 12,4 C 11,2 C 94 % 1014,8 hPa 0,0 l/m 0 min 0 min 0,0 UV-I 18 W/m 7,7 km/h (2 Bft)
13.06.2013 20:28 12,4 C 11,2 C 94 % 1014,8 hPa 0,0 l/m 0 min 0 min 0,0 UV-I 18 W/m 2,6 km/h (1 Bft)
13.06.2013 20:30 12,4 C 11,2 C 94 % 1014,9 hPa 0,0 l/m 0 min 0 min 0,0 UV-I 18 W/m 0,0 km/h (0 Bft)
13.06.2013 20:32 12,3 C 11,2 C 95 % 1014,8 hPa 0,0 l/m 0 min 0 min 0,0 UV-I 18 W/m 2,6 km/h (1 Bft)
13.06.2013 20:34 12,3 C 11,2 C 95 % 1014,9 hPa 0,0 l/m 0 min 0 min 0,0 UV-I 18 W/m 2,6 km/h (1 Bft)
13.06.2013 20:36 12,3 C 11,2 C 95 % 1015,1 hPa 0,0 l/m 0 min 0 min 0,0 UV-I 18 W/m 0,0 km/h (0 Bft)
13.06.2013 20:38 12,3 C 11,2 C 95 % 1015,1 hPa 0,0 l/m 0 min 0 min 0,0 UV-I 18 W/m 7,7 km/h (2 Bft)
13.06.2013 20:40 12,3 C 11,2 C 95 % 1015,2 hPa 0,0 l/m 0 min 0 min 0,0 UV-I 18 W/m 0,0 km/h (0 Bft)
13.06.2013 20:42 12,3 C 11,2 C 95 % 1015,1 hPa 0,0 l/m 0 min 0 min 0,0 UV-I 16 W/m 0,0 km/h (0 Bft)
13.06.2013 20:44 12,3 C 11,2 C 95 % 1015,1 hPa 0,0 l/m 0 min 0 min 0,0 UV-I 16 W/m 0,0 km/h (0 Bft)
13.06.2013 20:46 12,3 C 11,2 C 95 % 1015,2 hPa 0,0 l/m 0 min 0 min 0,0 UV-I 16 W/m 7,7 km/h (2 Bft)
13.06.2013 20:48 12,3 C 11,2 C 95 % 1015,3 hPa 0,0 l/m 0 min 0 min 0,0 UV-I 14 W/m 2,6 km/h (1 Bft)
13.06.2013 20:50 12,3 C 11,2 C 95 % 1015,4 hPa 0,0 l/m 0 min 0 min 0,0 UV-I 14 W/m 0,0 km/h (0 Bft)
13.06.2013 20:52 12,3 C 11,2 C 95 % 1015,4 hPa 0,0 l/m 0 min 0 min 0,0 UV-I 14 W/m 0,0 km/h (0 Bft)
13.06.2013 20:54 12,2 C 11,2 C 95 % 1015,3 hPa 0,0 l/m 0 min 0 min 0,0 UV-I 12 W/m 10,3 km/h (2 Bft)
13.06.2013 20:56 12,2 C 11,2 C 95 % 1015,2 hPa 0,0 l/m 0 min 0 min 0,0 UV-I 12 W/m 7,7 km/h (2 Bft)
13.06.2013 20:58 12,2 C 11,2 C 95 % 1015,2 hPa 0,0 l/m 0 min 0 min 0,0 UV-I 12 W/m 5,1 km/h (1 Bft)
13.06.2013 21:00 12,2 C 11,2 C 95 % 1015,2 hPa 0,0 l/m 0 min 0 min 0,0 UV-I 12 W/m 0,0 km/h (0 Bft)
13.06.2013 21:02 12,2 C 11,2 C 95 % 1015,3 hPa 0,0 l/m 0 min 0 min 0,0 UV-I 12 W/m 2,6 km/h (1 Bft)
13.06.2013 21:04 12,2 C 11,2 C 95 % 1015,3 hPa 0,0 l/m 0 min 0 min 0,0 UV-I 11 W/m 0,0 km/h (0 Bft)
13.06.2013 21:06 12,2 C 11,2 C 95 % 1015,3 hPa 0,0 l/m 0 min 0 min 0,0 UV-I 11 W/m 2,6 km/h (1 Bft)
13.06.2013 21:08 12,2 C 11,2 C 95 % 1015,3 hPa 0,0 l/m 0 min 0 min 0,0 UV-I 11 W/m 0,0 km/h (0 Bft)
13.06.2013 21:10 12,2 C 11,2 C 95 % 1015,3 hPa 0,0 l/m 0 min 2 min 0,0 UV-I 11 W/m 7,7 km/h (2 Bft)
13.06.2013 21:12 12,2 C 11,2 C 95 % 1015,2 hPa 0,0 l/m 0 min 2 min 0,0 UV-I 11 W/m 0,0 km/h (0 Bft)
13.06.2013 21:14 12,2 C 11,2 C 95 % 1015,3 hPa 0,0 l/m 0 min 0 min 0,0 UV-I 11 W/m 0,0 km/h (0 Bft)
13.06.2013 21:16 12,2 C 11,2 C 95 % 1015,3 hPa 0,0 l/m 0 min 0 min 0,0 UV-I 12 W/m 0,0 km/h (0 Bft)
13.06.2013 21:18 12,2 C 11,2 C 95 % 1015,2 hPa 0,0 l/m 0 min 0 min 0,0 UV-I 12 W/m 5,1 km/h (1 Bft)
13.06.2013 21:20 12,2 C 11,2 C 95 % 1015,3 hPa 0,0 l/m 0 min 0 min 0,0 UV-I 14 W/m 0,0 km/h (0 Bft)
13.06.2013 21:22 12,2 C 11,2 C 95 % 1015,3 hPa 0,0 l/m 0 min 0 min 0,0 UV-I 14 W/m 2,6 km/h (1 Bft)
13.06.2013 21:24 12,2 C 11,2 C 95 % 1015,3 hPa 0,0 l/m 0 min 0 min 0,0 UV-I 14 W/m 7,7 km/h (2 Bft)
13.06.2013 21:26 12,2 C 11,2 C 95 % 1015,2 hPa 0,0 l/m 0 min 0 min 0,0 UV-I 14 W/m 0,0 km/h (0 Bft)
13.06.2013 21:28 12,2 C 11,2 C 95 % 1015,3 hPa 0,0 l/m 0 min 0 min 0,0 UV-I 14 W/m 7,7 km/h (2 Bft)
13.06.2013 21:30 12,2 C 11,2 C 95 % 1015,3 hPa 0,0 l/m 0 min 0 min 0,0 UV-I 12 W/m 5,1 km/h (1 Bft)
13.06.2013 21:32 12,2 C 11,2 C 95 % 1015,1 hPa 0,0 l/m 0 min 0 min 0,0 UV-I 12 W/m 5,1 km/h (1 Bft)
13.06.2013 21:34 12,2 C 11,2 C 96 % 1015,2 hPa 0,0 l/m 0 min 0 min 0,0 UV-I 11 W/m 0,0 km/h (0 Bft)
13.06.2013 21:36 12,1 C 11,2 C 96 % 1015,2 hPa 0,0 l/m 0 min 0 min 0,0 UV-I 9 W/m 10,3 km/h (2 Bft)
13.06.2013 21:38 12,1 C 11,2 C 96 % 1015,3 hPa 0,0 l/m 0 min 0 min 0,0 UV-I 9 W/m 10,3 km/h (2 Bft)
13.06.2013 21:40 12,1 C 11,2 C 96 % 1015,3 hPa 0,0 l/m 0 min 0 min 0,0 UV-I 9 W/m 5,1 km/h (1 Bft)
13.06.2013 21:42 12,1 C 11,2 C 96 % 1015,3 hPa 0,0 l/m 0 min 0 min 0,0 UV-I 9 W/m 12,9 km/h (3 Bft)
13.06.2013 21:44 12,1 C 11,2 C 96 % 1015,3 hPa 0,0 l/m 0 min 0 min 0,0 UV-I 9 W/m 10,3 km/h (2 Bft)
13.06.2013 21:46 12,1 C 11,2 C 96 % 1015,4 hPa 0,0 l/m 0 min 0 min 0,0 UV-I 9 W/m 12,9 km/h (3 Bft)
13.06.2013 21:48 12,1 C 11,2 C 96 % 1015,4 hPa 0,0 l/m 0 min 0 min 0,0 UV-I 9 W/m 12,9 km/h (3 Bft)
13.06.2013 21:50 12,1 C 11,2 C 96 % 1015,3 hPa 0,0 l/m 0 min 0 min 0,0 UV-I 9 W/m 7,7 km/h (2 Bft)
13.06.2013 21:52 12,1 C 11,2 C 96 % 1015,3 hPa 0,0 l/m 0 min 0 min 0,0 UV-I 9 W/m 5,1 km/h (1 Bft)
13.06.2013 21:54 12,1 C 11,2 C 96 % 1015,5 hPa 0,0 l/m 0 min 0 min 0,0 UV-I 9 W/m 5,1 km/h (1 Bft)
13.06.2013 21:56 12,1 C 11,2 C 96 % 1015,8 hPa 0,0 l/m 0 min 0 min 0,0 UV-I 9 W/m 12,9 km/h (3 Bft)
13.06.2013 21:58 12,1 C 11,2 C 96 % 1015,8 hPa 0,0 l/m 0 min 0 min 0,0 UV-I 9 W/m 10,3 km/h (2 Bft)
13.06.2013 22:00 12,1 C 11,2 C 96 % 1015,8 hPa 0,0 l/m 0 min 0 min 0,0 UV-I 7 W/m 7,7 km/h (2 Bft)
13.06.2013 22:02 12,1 C 11,2 C 96 % 1015,7 hPa 0,0 l/m 0 min 0 min 0,0 UV-I 7 W/m 7,7 km/h (2 Bft)
13.06.2013 22:04 12,1 C 11,2 C 96 % 1015,7 hPa 0,0 l/m 0 min 0 min 0,0 UV-I 0 W/m 5,1 km/h (1 Bft)
13.06.2013 22:06 12,1 C 10,7 C 96 % 1015,7 hPa 0,0 l/m 0 min 0 min 0,0 UV-I 0 W/m 12,9 km/h (3 Bft)
13.06.2013 22:08 12,1 C 10,7 C 96 % 1015,9 hPa 0,0 l/m 0 min 0 min 0,0 UV-I 0 W/m 5,1 km/h (1 Bft)
13.06.2013 22:10 12,1 C 10,7 C 96 % 1015,9 hPa 0,0 l/m 0 min 0 min 0,0 UV-I 0 W/m 12,9 km/h (3 Bft)
13.06.2013 22:12 12,0 C 10,7 C 96 % 1015,9 hPa 0,0 l/m 0 min 0 min 0,0 UV-I 0 W/m 10,3 km/h (2 Bft)
13.06.2013 22:14 12,0 C 10,7 C 96 % 1016,0 hPa 0,0 l/m 0 min 0 min 0,0 UV-I 0 W/m 12,9 km/h (3 Bft)
13.06.2013 22:16 12,0 C 10,7 C 96 % 1016,1 hPa 0,0 l/m 0 min 0 min 0,0 UV-I 0 W/m 5,1 km/h (1 Bft)
13.06.2013 22:18 12,0 C 10,7 C 96 % 1016,2 hPa 0,0 l/m 0 min 0 min 0,0 UV-I 0 W/m 10,3 km/h (2 Bft)
13.06.2013 22:20 12,0 C 10,7 C 96 % 1016,2 hPa 0,0 l/m 0 min 0 min 0,0 UV-I 0 W/m 2,6 km/h (1 Bft)
13.06.2013 22:22 12,0 C 10,7 C 96 % 1016,2 hPa 0,0 l/m 0 min 0 min 0,0 UV-I 0 W/m 5,1 km/h (1 Bft)
13.06.2013 22:24 12,0 C 10,7 C 96 % 1016,3 hPa 0,0 l/m 0 min 0 min 0,0 UV-I 0 W/m 12,9 km/h (3 Bft)
13.06.2013 22:26 12,0 C 10,7 C 96 % 1016,2 hPa 0,0 l/m 0 min 0 min 0,0 UV-I 0 W/m 12,9 km/h (3 Bft)
13.06.2013 22:28 12,0 C 10,7 C 96 % 1016,3 hPa 0,0 l/m 0 min 0 min 0,0 UV-I 0 W/m 12,9 km/h (3 Bft)
13.06.2013 22:30 12,0 C 10,7 C 96 % 1016,4 hPa 0,0 l/m 0 min 0 min 0,0 UV-I 0 W/m 12,9 km/h (3 Bft)
13.06.2013 22:32 11,9 C 10,7 C 96 % 1016,2 hPa 0,0 l/m 0 min 0 min 0,0 UV-I 0 W/m 12,9 km/h (3 Bft)
13.06.2013 22:34 11,9 C 10,7 C 96 % 1016,3 hPa 0,0 l/m 0 min 0 min 0,0 UV-I 0 W/m 12,9 km/h (3 Bft)
13.06.2013 22:36 11,9 C 10,7 C 96 % 1016,2 hPa 0,2 l/m 0 min 0 min 0,0 UV-I 0 W/m 7,7 km/h (2 Bft)
13.06.2013 22:38 11,9 C 10,7 C 96 % 1016,2 hPa 0,0 l/m 0 min 0 min 0,0 UV-I 0 W/m 10,3 km/h (2 Bft)
13.06.2013 22:40 11,9 C 10,7 C 96 % 1016,2 hPa 0,0 l/m 0 min 0 min 0,0 UV-I 0 W/m 2,6 km/h (1 Bft)
13.06.2013 22:42 11,9 C 10,7 C 96 % 1016,2 hPa 0,0 l/m 0 min 0 min 0,0 UV-I 0 W/m 12,9 km/h (3 Bft)
13.06.2013 22:44 11,9 C 10,7 C 96 % 1016,1 hPa 0,0 l/m 0 min 0 min 0,0 UV-I 0 W/m 5,1 km/h (1 Bft)
13.06.2013 22:46 11,9 C 10,7 C 96 % 1016,0 hPa 0,0 l/m 0 min 0 min 0,0 UV-I 0 W/m 10,3 km/h (2 Bft)
13.06.2013 22:48 11,9 C 10,7 C 96 % 1016,0 hPa 0,0 l/m 0 min 0 min 0,0 UV-I 0 W/m 2,6 km/h (1 Bft)
13.06.2013 22:50 11,9 C 10,7 C 96 % 1016,0 hPa 0,0 l/m 0 min 0 min 0,0 UV-I 0 W/m 2,6 km/h (1 Bft)
13.06.2013 22:52 11,9 C 10,7 C 96 % 1016,1 hPa 0,0 l/m 0 min 0 min 0,0 UV-I 0 W/m 12,9 km/h (3 Bft)
13.06.2013 22:54 11,9 C 10,7 C 96 % 1016,2 hPa 0,0 l/m 0 min 0 min 0,0 UV-I 0 W/m 18,0 km/h (3 Bft)
13.06.2013 22:56 11,9 C 10,7 C 96 % 1016,2 hPa 0,0 l/m 0 min 0 min 0,0 UV-I 0 W/m 12,9 km/h (3 Bft)
13.06.2013 22:58 11,9 C 10,7 C 96 % 1016,2 hPa 0,0 l/m 0 min 0 min 0,0 UV-I 0 W/m 2,6 km/h (1 Bft)
13.06.2013 23:00 11,9 C 10,7 C 96 % 1016,1 hPa 0,0 l/m 0 min 0 min 0,0 UV-I 0 W/m 12,9 km/h (3 Bft)
13.06.2013 23:02 11,8 C 10,7 C 96 % 1016,1 hPa 0,0 l/m 0 min 0 min 0,0 UV-I 0 W/m 5,1 km/h (1 Bft)
13.06.2013 23:04 11,8 C 10,7 C 96 % 1016,2 hPa 0,0 l/m 0 min 0 min 0,0 UV-I 0 W/m 0,0 km/h (0 Bft)
13.06.2013 23:06 11,8 C 10,7 C 96 % 1016,1 hPa 0,0 l/m 0 min 0 min 0,0 UV-I 0 W/m 10,3 km/h (2 Bft)
13.06.2013 23:08 11,8 C 10,7 C 96 % 1016,2 hPa 0,0 l/m 0 min 0 min 0,0 UV-I 0 W/m 7,7 km/h (2 Bft)
13.06.2013 23:10 11,8 C 10,7 C 96 % 1016,2 hPa 0,0 l/m 0 min 0 min 0,0 UV-I 0 W/m 2,6 km/h (1 Bft)
13.06.2013 23:12 11,8 C 10,7 C 96 % 1016,3 hPa 0,0 l/m 0 min 0 min 0,0 UV-I 0 W/m 5,1 km/h (1 Bft)
13.06.2013 23:14 11,8 C 10,7 C 96 % 1016,2 hPa 0,0 l/m 0 min 0 min 0,0 UV-I 0 W/m 10,3 km/h (2 Bft)
13.06.2013 23:16 11,8 C 10,7 C 96 % 1016,2 hPa 0,0 l/m 0 min 0 min 0,0 UV-I 0 W/m 5,1 km/h (1 Bft)
13.06.2013 23:18 11,8 C 10,7 C 96 % 1016,2 hPa 0,0 l/m 0 min 0 min 0,0 UV-I 0 W/m 7,7 km/h (2 Bft)
13.06.2013 23:20 11,8 C 10,7 C 96 % 1016,3 hPa 0,0 l/m 0 min 0 min 0,0 UV-I 0 W/m 7,7 km/h (2 Bft)
13.06.2013 23:22 11,8 C 10,7 C 96 % 1016,2 hPa 0,0 l/m 0 min 0 min 0,0 UV-I 0 W/m 7,7 km/h (2 Bft)
13.06.2013 23:24 11,8 C 10,7 C 96 % 1016,2 hPa 0,0 l/m 0 min 0 min 0,0 UV-I 0 W/m 0,0 km/h (0 Bft)
13.06.2013 23:26 11,8 C 10,7 C 96 % 1016,1 hPa 0,0 l/m 0 min 0 min 0,0 UV-I 0 W/m 7,7 km/h (2 Bft)
13.06.2013 23:28 11,8 C 10,7 C 96 % 1016,2 hPa 0,0 l/m 0 min 0 min 0,0 UV-I 0 W/m 5,1 km/h (1 Bft)
13.06.2013 23:30 11,8 C 10,7 C 96 % 1016,2 hPa 0,0 l/m 0 min 0 min 0,0 UV-I 0 W/m 12,9 km/h (3 Bft)
13.06.2013 23:32 11,8 C 10,7 C 96 % 1016,2 hPa 0,0 l/m 0 min 0 min 0,0 UV-I 0 W/m 5,1 km/h (1 Bft)
13.06.2013 23:34 11,8 C 10,7 C 96 % 1016,2 hPa 0,0 l/m 0 min 0 min 0,0 UV-I 0 W/m 5,1 km/h (1 Bft)
13.06.2013 23:36 11,8 C 10,7 C 96 % 1016,2 hPa 0,0 l/m 0 min 0 min 0,0 UV-I 0 W/m 0,0 km/h (0 Bft)
13.06.2013 23:38 11,8 C 10,7 C 96 % 1016,2 hPa 0,0 l/m 0 min 0 min 0,0 UV-I 0 W/m 0,0 km/h (0 Bft)
13.06.2013 23:40 11,8 C 10,7 C 96 % 1016,3 hPa 0,0 l/m 0 min 0 min 0,0 UV-I 0 W/m 0,0 km/h (0 Bft)
13.06.2013 23:42 11,7 C 10,7 C 96 % 1016,3 hPa 0,0 l/m 0 min 0 min 0,0 UV-I 0 W/m 0,0 km/h (0 Bft)
13.06.2013 23:44 11,7 C 10,7 C 96 % 1016,3 hPa 0,0 l/m 0 min 0 min 0,0 UV-I 0 W/m 7,7 km/h (2 Bft)
13.06.2013 23:46 11,7 C 10,7 C 96 % 1016,2 hPa 0,0 l/m 0 min 0 min 0,0 UV-I 0 W/m 7,7 km/h (2 Bft)
13.06.2013 23:48 11,7 C 10,7 C 96 % 1016,3 hPa 0,0 l/m 0 min 0 min 0,0 UV-I 0 W/m 5,1 km/h (1 Bft)
13.06.2013 23:50 11,7 C 10,7 C 96 % 1016,3 hPa 0,0 l/m 0 min 0 min 0,0 UV-I 0 W/m 12,9 km/h (3 Bft)
13.06.2013 23:52 11,7 C 10,7 C 96 % 1016,2 hPa 0,0 l/m 0 min 0 min 0,0 UV-I 0 W/m 7,7 km/h (2 Bft)
13.06.2013 23:54 11,7 C 10,7 C 96 % 1016,3 hPa 0,0 l/m 0 min 0 min 0,0 UV-I 0 W/m 10,3 km/h (2 Bft)
13.06.2013 23:56 11,7 C 10,7 C 96 % 1016,3 hPa 0,0 l/m 0 min 0 min 0,0 UV-I 0 W/m 12,9 km/h (3 Bft)
13.06.2013 23:58 11,7 C 10,7 C 96 % 1016,3 hPa 0,0 l/m 0 min 0 min 0,0 UV-I 0 W/m 7,7 km/h (2 Bft)
_ Min-Zeit 23:42 22:06 14:10 13:56 - - - - - 00:02
Minimum _ 11,7 C 10,7 C 64 % 1011,4 hPa - - - - - 0,0 km/h (0 Bft)
_ Max-Zeit 13:00 13:12 19:50 22:30 07:12 10:04 07:00 12:48 13:18 15:26
Maximum _ 24,4 C 28,4 C 96 % 1016,4 hPa 0,2 l/m 2 min 2 min 4,8 UV-I 837 W/m 36,0 km/h
SW (5 Bft)
Durchschnitt _ 18,4 C 17,5 C 85 % 1013,8 hPa #6,0 l/m #2:02 h #6:06 h 2,3 UV-I 172 W/m 9,7 km/h (2 Bft)
© 2013 W. Hausmann